Wetterdaten: Dienstag, 12.06.2018
Datum Zeit Temp. Aussen Temp. o. S. +5cm Feuchte Auss Luftdruck Regen Sonnenschein Regendauer Solar Windben Empfang
12.06.2018 00:00 19,2 C 18,3 C 17,8 C 73 % 1008,9 hPa 0,0 l/m 0 min 0 min 0 W/m 4,5 km/h (1 Bft) 97,87 %
12.06.2018 00:02 19,2 C 18,3 C 17,8 C 73 % 1008,8 hPa 0,0 l/m 0 min 0 min 0 W/m 6,8 km/h (2 Bft) 94,87 %
12.06.2018 00:04 19,2 C 18,3 C 17,8 C 73 % 1008,8 hPa 0,0 l/m 0 min 0 min 0 W/m 4,5 km/h (1 Bft) 97,87 %
12.06.2018 00:08 19,2 C 17,8 C 17,8 C 73 % 1008,8 hPa 0,0 l/m 0 min 0 min 0 W/m 6,8 km/h (2 Bft) 97,87 %
12.06.2018 00:10 19,1 C 17,8 C 17,8 C 74 % 1008,9 hPa 0,0 l/m 0 min 0 min 0 W/m 4,5 km/h (1 Bft) 97,87 %
12.06.2018 00:12 19,1 C 17,8 C 17,8 C 74 % 1008,9 hPa 0,0 l/m 0 min 0 min 0 W/m 11,3 km/h (2 Bft) 95,65 %
12.06.2018 00:14 19,1 C 17,8 C 17,8 C 74 % 1008,9 hPa 0,0 l/m 0 min 0 min 0 W/m 6,8 km/h (2 Bft) 97,87 %
12.06.2018 00:16 19,1 C 17,8 C 17,8 C 74 % 1008,9 hPa 0,0 l/m 0 min 0 min 0 W/m 13,5 km/h (3 Bft) 95,74 %
12.06.2018 00:18 19,0 C 17,8 C 17,8 C 74 % 1008,9 hPa 0,0 l/m 0 min 0 min 0 W/m 9,0 km/h (2 Bft) 97,87 %
12.06.2018 00:20 18,9 C 17,8 C 17,8 C 75 % 1009,0 hPa 0,0 l/m 0 min 0 min 0 W/m 2,3 km/h (1 Bft) 97,87 %
12.06.2018 00:22 18,9 C 17,8 C 17,8 C 75 % 1009,1 hPa 0,0 l/m 0 min 0 min 0 W/m 6,8 km/h (2 Bft) 97,87 %
12.06.2018 00:24 18,9 C 17,8 C 17,2 C 75 % 1009,2 hPa 0,0 l/m 0 min 0 min 0 W/m 9,0 km/h (2 Bft) 97,83 %
12.06.2018 00:26 18,9 C 17,8 C 17,2 C 75 % 1009,1 hPa 0,0 l/m 0 min 0 min 0 W/m 6,8 km/h (2 Bft) 97,87 %
12.06.2018 00:28 18,8 C 17,8 C 17,2 C 75 % 1009,1 hPa 0,0 l/m 0 min 0 min 0 W/m 6,8 km/h (2 Bft) 95,74 %
12.06.2018 00:30 18,8 C 17,8 C 17,2 C 75 % 1009,1 hPa 0,0 l/m 0 min 0 min 0 W/m 4,5 km/h (1 Bft) 97,87 %
12.06.2018 00:32 18,8 C 17,8 C 17,2 C 75 % 1009,1 hPa 0,0 l/m 0 min 0 min 0 W/m 11,3 km/h (2 Bft) 93,62 %
12.06.2018 00:34 18,7 C 17,8 C 17,2 C 76 % 1009,2 hPa 0,0 l/m 0 min 0 min 0 W/m 11,3 km/h (2 Bft) 97,87 %
12.06.2018 00:36 18,7 C 17,8 C 17,2 C 76 % 1009,2 hPa 0,0 l/m 0 min 0 min 0 W/m 4,5 km/h (1 Bft) 95,65 %
12.06.2018 00:38 18,7 C 17,8 C 17,2 C 76 % 1009,3 hPa 0,0 l/m 0 min 0 min 0 W/m 4,5 km/h (1 Bft) 95,74 %
12.06.2018 00:40 18,7 C 17,8 C 17,2 C 76 % 1009,3 hPa 0,0 l/m 0 min 0 min 0 W/m 6,8 km/h (2 Bft) 97,87 %
12.06.2018 00:42 18,6 C 17,8 C 17,2 C 77 % 1009,3 hPa 0,0 l/m 0 min 0 min 0 W/m 6,8 km/h (2 Bft) 97,87 %
12.06.2018 00:44 18,6 C 17,8 C 17,2 C 77 % 1009,3 hPa 0,0 l/m 0 min 0 min 0 W/m 6,8 km/h (2 Bft) 97,87 %
12.06.2018 00:46 18,6 C 17,8 C 17,2 C 77 % 1009,3 hPa 0,0 l/m 0 min 0 min 0 W/m 6,8 km/h (2 Bft) 95,74 %
12.06.2018 00:48 18,5 C 17,2 C 17,2 C 77 % 1009,3 hPa 0,0 l/m 0 min 0 min 0 W/m 4,5 km/h (1 Bft) 97,83 %
12.06.2018 00:50 18,5 C 17,2 C 17,2 C 77 % 1009,3 hPa 0,0 l/m 0 min 0 min 0 W/m 4,5 km/h (1 Bft) 97,87 %
12.06.2018 00:52 18,5 C 17,2 C 17,2 C 77 % 1009,3 hPa 0,0 l/m 0 min 0 min 0 W/m 4,5 km/h (1 Bft) 97,87 %
12.06.2018 00:54 18,4 C 17,2 C 17,2 C 77 % 1009,3 hPa 0,0 l/m 0 min 0 min 0 W/m 2,3 km/h (1 Bft) 95,74 %
12.06.2018 00:56 18,4 C 17,2 C 17,2 C 77 % 1009,3 hPa 0,0 l/m 0 min 0 min 0 W/m 4,5 km/h (1 Bft) 95,74 %
12.06.2018 00:58 18,4 C 17,2 C 17,2 C 78 % 1009,4 hPa 0,0 l/m 0 min 0 min 0 W/m 9,0 km/h (2 Bft) 97,83 %
12.06.2018 01:00 18,4 C 17,2 C 17,2 C 78 % 1009,4 hPa 0,0 l/m 0 min 0 min 0 W/m 4,5 km/h (1 Bft) 97,87 %
12.06.2018 01:02 18,4 C 17,2 C 17,2 C 78 % 1009,3 hPa 0,0 l/m 0 min 0 min 0 W/m 4,5 km/h (1 Bft) 97,87 %
12.06.2018 01:04 18,3 C 17,2 C 17,2 C 78 % 1009,3 hPa 0,0 l/m 0 min 0 min 0 W/m 6,8 km/h (2 Bft) 95,74 %
12.06.2018 01:06 18,3 C 17,2 C 17,2 C 78 % 1009,3 hPa 0,0 l/m 0 min 0 min 0 W/m 9,0 km/h (2 Bft) 97,87 %
12.06.2018 01:08 18,3 C 17,2 C 17,2 C 79 % 1009,3 hPa 0,0 l/m 0 min 0 min 0 W/m 11,3 km/h (2 Bft) 97,87 %
12.06.2018 01:10 18,2 C 17,2 C 16,7 C 79 % 1009,3 hPa 0,0 l/m 0 min 0 min 0 W/m 11,3 km/h (2 Bft) 97,83 %
12.06.2018 01:12 18,2 C 17,2 C 16,7 C 79 % 1009,3 hPa 0,0 l/m 0 min 0 min 0 W/m 4,5 km/h (1 Bft) 95,74 %
12.06.2018 01:14 18,2 C 17,2 C 16,7 C 79 % 1009,3 hPa 0,0 l/m 0 min 0 min 0 W/m 4,5 km/h (1 Bft) 95,74 %
12.06.2018 01:16 18,2 C 17,2 C 16,7 C 79 % 1009,3 hPa 0,0 l/m 0 min 0 min 0 W/m 4,5 km/h (1 Bft) 95,74 %
12.06.2018 01:18 18,1 C 17,2 C 16,7 C 79 % 1009,3 hPa 0,0 l/m 0 min 0 min 0 W/m 11,3 km/h (2 Bft) 97,87 %
12.06.2018 01:20 18,1 C 17,2 C 16,7 C 79 % 1009,3 hPa 0,0 l/m 0 min 0 min 0 W/m 18,0 km/h (3 Bft) 97,87 %
12.06.2018 01:22 18,1 C 17,2 C 16,7 C 79 % 1009,1 hPa 0,0 l/m 0 min 0 min 0 W/m 2,3 km/h (1 Bft) 95,65 %
12.06.2018 01:24 18,1 C 17,2 C 16,7 C 80 % 1009,1 hPa 0,0 l/m 0 min 0 min 0 W/m 9,0 km/h (2 Bft) 95,74 %
12.06.2018 01:26 18,0 C 16,7 C 16,7 C 80 % 1009,2 hPa 0,0 l/m 0 min 0 min 0 W/m 9,0 km/h (2 Bft) 97,87 %
12.06.2018 01:28 17,9 C 16,7 C 16,7 C 80 % 1009,1 hPa 0,0 l/m 0 min 0 min 0 W/m 4,5 km/h (1 Bft) 95,74 %
12.06.2018 01:30 17,9 C 16,7 C 16,7 C 80 % 1009,3 hPa 0,0 l/m 0 min 0 min 0 W/m 15,8 km/h (3 Bft) 97,87 %
12.06.2018 01:32 17,9 C 16,7 C 16,7 C 80 % 1009,3 hPa 0,0 l/m 0 min 0 min 0 W/m 13,5 km/h (3 Bft) 98,11 %
12.06.2018 01:34 17,9 C 16,7 C 16,7 C 80 % 1009,2 hPa 0,0 l/m 0 min 0 min 0 W/m 6,8 km/h (2 Bft) 97,87 %
12.06.2018 01:36 17,8 C 16,7 C 16,7 C 80 % 1009,3 hPa 0,0 l/m 0 min 0 min 0 W/m 4,5 km/h (1 Bft) 100,00 %
12.06.2018 01:38 17,8 C 16,7 C 16,7 C 80 % 1009,3 hPa 0,0 l/m 0 min 0 min 0 W/m 9,0 km/h (2 Bft) 100,00 %
12.06.2018 01:40 17,8 C 16,7 C 16,7 C 80 % 1009,2 hPa 0,0 l/m 0 min 0 min 0 W/m 4,5 km/h (1 Bft) 100,00 %
12.06.2018 01:42 17,7 C 16,7 C 16,7 C 80 % 1009,3 hPa 0,0 l/m 0 min 0 min 0 W/m 6,8 km/h (2 Bft) 100,00 %
12.06.2018 01:44 17,7 C 16,7 C 16,7 C 81 % 1009,4 hPa 0,0 l/m 0 min 0 min 0 W/m 6,8 km/h (2 Bft) 100,00 %
12.06.2018 01:46 17,7 C 16,7 C 16,7 C 81 % 1009,4 hPa 0,0 l/m 0 min 0 min 0 W/m 4,5 km/h (1 Bft) 100,00 %
12.06.2018 01:48 17,7 C 16,7 C 16,7 C 81 % 1009,3 hPa 0,0 l/m 0 min 0 min 0 W/m 6,8 km/h (2 Bft) 100,00 %
12.06.2018 01:50 17,7 C 16,7 C 16,7 C 81 % 1009,3 hPa 0,0 l/m 0 min 0 min 0 W/m 9,0 km/h (2 Bft) 97,87 %
12.06.2018 01:52 17,7 C 16,7 C 16,7 C 81 % 1009,4 hPa 0,0 l/m 0 min 0 min 0 W/m 4,5 km/h (1 Bft) 97,87 %
12.06.2018 01:54 17,6 C 16,7 C 16,7 C 81 % 1009,3 hPa 0,0 l/m 0 min 0 min 0 W/m 11,3 km/h (2 Bft) 97,87 %
12.06.2018 01:56 17,6 C 16,7 C 16,7 C 81 % 1009,3 hPa 0,0 l/m 0 min 0 min 0 W/m 6,8 km/h (2 Bft) 97,87 %
12.06.2018 01:58 17,6 C 16,7 C 16,7 C 81 % 1009,4 hPa 0,0 l/m 0 min 0 min 0 W/m 4,5 km/h (1 Bft) 97,87 %
12.06.2018 02:00 17,6 C 16,7 C 16,7 C 82 % 1009,4 hPa 0,0 l/m 0 min 0 min 0 W/m 4,5 km/h (1 Bft) 97,83 %
12.06.2018 02:02 17,6 C 16,7 C 16,7 C 82 % 1009,4 hPa 0,0 l/m 0 min 0 min 0 W/m 2,3 km/h (1 Bft) 97,87 %
12.06.2018 02:04 17,5 C 16,7 C 16,7 C 82 % 1009,5 hPa 0,0 l/m 0 min 0 min 0 W/m 4,5 km/h (1 Bft) 95,74 %
12.06.2018 02:06 17,5 C 16,7 C 16,1 C 82 % 1009,4 hPa 0,0 l/m 0 min 0 min 0 W/m 9,0 km/h (2 Bft) 97,22 %
12.06.2018 02:08 17,5 C 16,7 C 16,1 C 82 % 1009,5 hPa 0,0 l/m 0 min 0 min 0 W/m 9,0 km/h (2 Bft) 97,87 %
12.06.2018 02:10 17,4 C 16,7 C 16,1 C 82 % 1009,5 hPa 0,0 l/m 0 min 0 min 0 W/m 4,5 km/h (1 Bft) 97,87 %
12.06.2018 02:12 17,4 C 16,7 C 16,1 C 82 % 1009,5 hPa 0,0 l/m 0 min 0 min 0 W/m 4,5 km/h (1 Bft) 97,87 %
12.06.2018 02:14 17,4 C 16,7 C 16,1 C 82 % 1009,5 hPa 0,0 l/m 0 min 0 min 0 W/m 4,5 km/h (1 Bft) 95,74 %
12.06.2018 02:16 17,4 C 16,7 C 16,1 C 82 % 1009,5 hPa 0,0 l/m 0 min 0 min 0 W/m 9,0 km/h (2 Bft) 97,83 %
12.06.2018 02:18 17,3 C 16,1 C 16,1 C 82 % 1009,4 hPa 0,0 l/m 0 min 0 min 0 W/m 18,0 km/h (3 Bft) 97,87 %
12.06.2018 02:20 17,3 C 16,1 C 16,1 C 82 % 1009,4 hPa 0,0 l/m 0 min 0 min 0 W/m 2,3 km/h (1 Bft) 97,87 %
12.06.2018 02:22 17,3 C 16,1 C 16,1 C 82 % 1009,4 hPa 0,0 l/m 0 min 0 min 0 W/m 2,3 km/h (1 Bft) 98,04 %
12.06.2018 02:24 17,2 C 16,1 C 16,1 C 82 % 1009,3 hPa 0,0 l/m 0 min 0 min 0 W/m 6,8 km/h (2 Bft) 97,87 %
12.06.2018 02:26 17,2 C 16,1 C 16,1 C 83 % 1009,4 hPa 0,0 l/m 0 min 0 min 0 W/m 11,3 km/h (2 Bft) 97,83 %
12.06.2018 02:28 17,2 C 16,1 C 16,1 C 83 % 1009,5 hPa 0,0 l/m 0 min 0 min 0 W/m 6,8 km/h (2 Bft) 97,87 %
12.06.2018 02:30 17,2 C 16,1 C 16,1 C 83 % 1009,4 hPa 0,0 l/m 0 min 0 min 0 W/m 6,8 km/h (2 Bft) 97,87 %
12.06.2018 02:32 17,1 C 16,1 C 16,1 C 83 % 1009,4 hPa 0,0 l/m 0 min 0 min 0 W/m 6,8 km/h (2 Bft) 97,87 %
12.06.2018 02:34 17,1 C 16,1 C 16,1 C 83 % 1009,4 hPa 0,0 l/m 0 min 0 min 0 W/m 4,5 km/h (1 Bft) 97,87 %
12.06.2018 02:36 17,1 C 16,1 C 16,1 C 83 % 1009,4 hPa 0,0 l/m 0 min 0 min 0 W/m 4,5 km/h (1 Bft) 97,87 %
12.06.2018 02:38 17,0 C 16,1 C 16,1 C 83 % 1009,4 hPa 0,0 l/m 0 min 0 min 0 W/m 2,3 km/h (1 Bft) 97,83 %
12.06.2018 02:40 17,0 C 16,1 C 16,1 C 83 % 1009,3 hPa 0,0 l/m 0 min 0 min 0 W/m 6,8 km/h (2 Bft) 95,74 %
12.06.2018 02:42 17,0 C 16,1 C 15,6 C 83 % 1009,3 hPa 0,0 l/m 0 min 0 min 0 W/m 6,8 km/h (2 Bft) 97,87 %
12.06.2018 02:44 16,9 C 16,1 C 15,6 C 83 % 1009,3 hPa 0,0 l/m 0 min 0 min 0 W/m 9,0 km/h (2 Bft) 97,87 %
12.06.2018 02:46 16,9 C 16,1 C 15,6 C 83 % 1009,3 hPa 0,0 l/m 0 min 0 min 0 W/m 4,5 km/h (1 Bft) 95,74 %
12.06.2018 02:48 16,9 C 15,6 C 15,6 C 83 % 1009,4 hPa 0,0 l/m 0 min 0 min 0 W/m 6,8 km/h (2 Bft) 97,87 %
12.06.2018 02:50 16,8 C 15,6 C 15,6 C 83 % 1009,4 hPa 0,0 l/m 0 min 0 min 0 W/m 6,8 km/h (2 Bft) 97,87 %
12.06.2018 02:52 16,8 C 15,6 C 15,6 C 83 % 1009,4 hPa 0,0 l/m 0 min 0 min 0 W/m 11,3 km/h (2 Bft) 91,49 %
12.06.2018 02:54 16,8 C 15,6 C 15,6 C 83 % 1009,4 hPa 0,0 l/m 0 min 0 min 0 W/m 9,0 km/h (2 Bft) 95,74 %
12.06.2018 02:56 16,7 C 15,6 C 15,6 C 83 % 1009,4 hPa 0,0 l/m 0 min 0 min 0 W/m 4,5 km/h (1 Bft) 95,65 %
12.06.2018 02:58 16,7 C 15,6 C 15,6 C 83 % 1009,4 hPa 0,0 l/m 0 min 0 min 0 W/m 6,8 km/h (2 Bft) 97,87 %
12.06.2018 03:00 16,6 C 15,6 C 15,6 C 83 % 1009,4 hPa 0,0 l/m 0 min 0 min 0 W/m 11,3 km/h (2 Bft) 97,87 %
12.06.2018 03:02 16,6 C 15,6 C 15,6 C 83 % 1009,5 hPa 0,0 l/m 0 min 0 min 0 W/m 6,8 km/h (2 Bft) 97,87 %
12.06.2018 03:04 16,6 C 15,6 C 15,6 C 83 % 1009,4 hPa 0,0 l/m 0 min 0 min 0 W/m 9,0 km/h (2 Bft) 95,74 %
12.06.2018 03:06 16,5 C 15,6 C 15,6 C 83 % 1009,5 hPa 0,0 l/m 0 min 0 min 0 W/m 11,3 km/h (2 Bft) 93,62 %
12.06.2018 03:08 16,5 C 15,6 C 15,0 C 83 % 1009,5 hPa 0,0 l/m 0 min 0 min 0 W/m 9,0 km/h (2 Bft) 97,83 %
12.06.2018 03:10 16,4 C 15,6 C 15,0 C 83 % 1009,4 hPa 0,0 l/m 0 min 0 min 0 W/m 4,5 km/h (1 Bft) 95,74 %
12.06.2018 03:12 16,4 C 15,6 C 15,0 C 84 % 1009,5 hPa 0,0 l/m 0 min 0 min 0 W/m 6,8 km/h (2 Bft) 97,87 %
12.06.2018 03:14 16,4 C 15,6 C 15,0 C 84 % 1009,4 hPa 0,0 l/m 0 min 0 min 0 W/m 11,3 km/h (2 Bft) 93,62 %
12.06.2018 03:16 16,3 C 15,6 C 15,0 C 84 % 1009,5 hPa 0,0 l/m 0 min 0 min 0 W/m 4,5 km/h (1 Bft) 95,74 %
12.06.2018 03:18 16,3 C 15,6 C 15,0 C 84 % 1009,5 hPa 0,0 l/m 0 min 0 min 0 W/m 4,5 km/h (1 Bft) 97,87 %
12.06.2018 03:20 16,3 C 15,6 C 15,0 C 84 % 1009,5 hPa 0,0 l/m 0 min 0 min 0 W/m 6,8 km/h (2 Bft) 97,83 %
12.06.2018 03:22 16,3 C 15,6 C 15,0 C 84 % 1009,5 hPa 0,0 l/m 0 min 0 min 0 W/m 9,0 km/h (2 Bft) 97,87 %
12.06.2018 03:24 16,2 C 15,0 C 15,0 C 84 % 1009,6 hPa 0,0 l/m 0 min 0 min 0 W/m 6,8 km/h (2 Bft) 93,62 %
12.06.2018 03:26 16,2 C 15,0 C 15,0 C 84 % 1009,5 hPa 0,0 l/m 0 min 0 min 0 W/m 6,8 km/h (2 Bft) 93,62 %
12.06.2018 03:28 16,2 C 15,0 C 15,0 C 84 % 1009,5 hPa 0,0 l/m 0 min 0 min 0 W/m 4,5 km/h (1 Bft) 95,74 %
12.06.2018 03:30 16,2 C 15,0 C 15,0 C 84 % 1009,6 hPa 0,0 l/m 0 min 0 min 0 W/m 2,3 km/h (1 Bft) 97,83 %
12.06.2018 03:32 16,1 C 15,0 C 15,0 C 84 % 1009,6 hPa 0,0 l/m 0 min 0 min 0 W/m 9,0 km/h (2 Bft) 95,74 %
12.06.2018 03:34 16,1 C 15,0 C 15,0 C 84 % 1009,6 hPa 0,0 l/m 0 min 0 min 0 W/m 4,5 km/h (1 Bft) 95,74 %
12.06.2018 03:36 16,1 C 15,0 C 15,0 C 85 % 1009,6 hPa 0,0 l/m 0 min 0 min 0 W/m 2,3 km/h (1 Bft) 93,62 %
12.06.2018 03:38 16,1 C 15,0 C 15,0 C 85 % 1009,7 hPa 0,0 l/m 0 min 0 min 0 W/m 6,8 km/h (2 Bft) 95,74 %
12.06.2018 03:40 16,0 C 15,0 C 15,0 C 85 % 1009,7 hPa 0,0 l/m 0 min 0 min 0 W/m 9,0 km/h (2 Bft) 97,87 %
12.06.2018 03:42 16,0 C 15,0 C 15,0 C 85 % 1009,7 hPa 0,0 l/m 0 min 0 min 0 W/m 6,8 km/h (2 Bft) 97,83 %
12.06.2018 03:44 16,0 C 15,0 C 15,0 C 85 % 1009,7 hPa 0,0 l/m 0 min 0 min 0 W/m 4,5 km/h (1 Bft) 93,62 %
12.06.2018 03:46 15,9 C 15,0 C 15,0 C 85 % 1009,6 hPa 0,0 l/m 0 min 0 min 0 W/m 2,3 km/h (1 Bft) 97,87 %
12.06.2018 03:48 15,9 C 15,0 C 15,0 C 85 % 1009,7 hPa 0,0 l/m 0 min 0 min 0 W/m 2,3 km/h (1 Bft) 97,87 %
12.06.2018 03:50 15,9 C 15,0 C 15,0 C 85 % 1009,7 hPa 0,0 l/m 0 min 0 min 0 W/m 6,8 km/h (2 Bft) 97,87 %
12.06.2018 03:52 15,9 C 15,0 C 15,0 C 85 % 1009,7 hPa 0,0 l/m 0 min 0 min 0 W/m 6,8 km/h (2 Bft) 97,87 %
12.06.2018 03:54 15,8 C 15,0 C 15,0 C 85 % 1009,7 hPa 0,0 l/m 0 min 0 min 0 W/m 4,5 km/h (1 Bft) 95,65 %
12.06.2018 03:56 15,8 C 15,0 C 15,0 C 85 % 1009,7 hPa 0,0 l/m 0 min 0 min 0 W/m 6,8 km/h (2 Bft) 97,87 %
12.06.2018 03:58 15,8 C 15,0 C 15,0 C 85 % 1009,7 hPa 0,0 l/m 0 min 0 min 0 W/m 2,3 km/h (1 Bft) 97,87 %
12.06.2018 04:00 15,8 C 15,0 C 15,0 C 85 % 1009,7 hPa 0,0 l/m 0 min 0 min 0 W/m 2,3 km/h (1 Bft) 97,87 %
12.06.2018 04:02 15,8 C 15,0 C 15,0 C 85 % 1009,6 hPa 0,0 l/m 0 min 0 min 0 W/m 4,5 km/h (1 Bft) 100,00 %
12.06.2018 04:04 15,7 C 15,0 C 15,0 C 86 % 1009,6 hPa 0,0 l/m 0 min 0 min 0 W/m 9,0 km/h (2 Bft) 93,62 %
12.06.2018 04:06 15,7 C 14,4 C 14,4 C 85 % 1009,6 hPa 0,0 l/m 0 min 0 min 0 W/m 9,0 km/h (2 Bft) 97,83 %
12.06.2018 04:08 15,7 C 14,4 C 14,4 C 86 % 1009,6 hPa 0,0 l/m 0 min 0 min 0 W/m 11,3 km/h (2 Bft) 97,87 %
12.06.2018 04:10 15,6 C 14,4 C 14,4 C 86 % 1009,6 hPa 0,0 l/m 0 min 0 min 0 W/m 11,3 km/h (2 Bft) 97,87 %
12.06.2018 04:12 15,6 C 14,4 C 14,4 C 86 % 1009,6 hPa 0,0 l/m 0 min 0 min 0 W/m 9,0 km/h (2 Bft) 95,74 %
12.06.2018 04:14 15,6 C 14,4 C 14,4 C 86 % 1009,6 hPa 0,0 l/m 0 min 0 min 0 W/m 9,0 km/h (2 Bft) 97,87 %
12.06.2018 04:16 15,5 C 14,4 C 14,4 C 86 % 1009,5 hPa 0,0 l/m 0 min 0 min 0 W/m 9,0 km/h (2 Bft) 97,87 %
12.06.2018 04:18 15,5 C 14,4 C 14,4 C 86 % 1009,6 hPa 0,0 l/m 0 min 0 min 0 W/m 6,8 km/h (2 Bft) 100,00 %
12.06.2018 04:20 15,4 C 14,4 C 14,4 C 86 % 1009,4 hPa 0,0 l/m 0 min 0 min 0 W/m 11,3 km/h (2 Bft) 100,00 %
12.06.2018 04:22 15,4 C 14,4 C 14,4 C 86 % 1009,5 hPa 0,0 l/m 0 min 0 min 0 W/m 2,3 km/h (1 Bft) 100,00 %
12.06.2018 04:24 15,4 C 14,4 C 14,4 C 86 % 1009,5 hPa 0,0 l/m 0 min 0 min 0 W/m 6,8 km/h (2 Bft) 100,00 %
12.06.2018 04:26 15,4 C 14,4 C 14,4 C 86 % 1009,5 hPa 0,0 l/m 0 min 0 min 0 W/m 9,0 km/h (2 Bft) 100,00 %
12.06.2018 04:28 15,4 C 14,4 C 14,4 C 86 % 1009,6 hPa 0,0 l/m 0 min 0 min 0 W/m 4,5 km/h (1 Bft) 97,87 %
12.06.2018 04:30 15,3 C 14,4 C 14,4 C 86 % 1009,6 hPa 0,0 l/m 0 min 0 min 0 W/m 6,8 km/h (2 Bft) 100,00 %
12.06.2018 04:32 15,3 C 14,4 C 14,4 C 86 % 1009,5 hPa 0,0 l/m 0 min 0 min 0 W/m 6,8 km/h (2 Bft) 100,00 %
12.06.2018 04:34 15,3 C 14,4 C 14,4 C 86 % 1009,5 hPa 0,0 l/m 0 min 0 min 0 W/m 4,5 km/h (1 Bft) 100,00 %
12.06.2018 04:36 15,2 C 14,4 C 14,4 C 86 % 1009,5 hPa 0,0 l/m 0 min 0 min 0 W/m 6,8 km/h (2 Bft) 100,00 %
12.06.2018 04:38 15,2 C 14,4 C 14,4 C 86 % 1009,5 hPa 0,0 l/m 0 min 0 min 0 W/m 4,5 km/h (1 Bft) 100,00 %
12.06.2018 04:40 15,2 C 14,4 C 14,4 C 87 % 1009,5 hPa 0,0 l/m 0 min 0 min 0 W/m 4,5 km/h (1 Bft) 100,00 %
12.06.2018 04:42 15,2 C 14,4 C 14,4 C 87 % 1009,5 hPa 0,0 l/m 0 min 0 min 0 W/m 11,3 km/h (2 Bft) 100,00 %
12.06.2018 04:44 15,2 C 14,4 C 14,4 C 87 % 1009,5 hPa 0,0 l/m 0 min 0 min 0 W/m 15,8 km/h (3 Bft) 100,00 %
12.06.2018 04:46 15,1 C 14,4 C 14,4 C 87 % 1009,5 hPa 0,0 l/m 0 min 0 min 0 W/m 4,5 km/h (1 Bft) 100,00 %
12.06.2018 04:48 15,1 C 14,4 C 14,4 C 87 % 1009,5 hPa 0,0 l/m 0 min 0 min 0 W/m 6,8 km/h (2 Bft) 100,00 %
12.06.2018 04:50 15,1 C 14,4 C 14,4 C 87 % 1009,5 hPa 0,0 l/m 0 min 0 min 0 W/m 4,5 km/h (1 Bft) 100,00 %
12.06.2018 04:52 15,1 C 14,4 C 14,4 C 87 % 1009,4 hPa 0,0 l/m 0 min 0 min 0 W/m 6,8 km/h (2 Bft) 100,00 %
12.06.2018 04:54 15,1 C 14,4 C 14,4 C 87 % 1009,5 hPa 0,0 l/m 0 min 0 min 0 W/m 6,8 km/h (2 Bft) 100,00 %
12.06.2018 04:56 15,0 C 14,4 C 14,4 C 87 % 1009,5 hPa 0,0 l/m 0 min 0 min 0 W/m 9,0 km/h (2 Bft) 100,00 %
12.06.2018 04:58 15,0 C 14,4 C 13,9 C 87 % 1009,4 hPa 0,0 l/m 0 min 0 min 0 W/m 9,0 km/h (2 Bft) 100,00 %
12.06.2018 05:00 15,0 C 14,4 C 13,9 C 87 % 1009,5 hPa 0,0 l/m 0 min 0 min 0 W/m 9,0 km/h (2 Bft) 97,87 %
12.06.2018 05:02 14,9 C 14,4 C 13,9 C 87 % 1009,5 hPa 0,0 l/m 0 min 0 min 0 W/m 11,3 km/h (2 Bft) 97,87 %
12.06.2018 05:04 14,9 C 14,4 C 13,9 C 87 % 1009,4 hPa 0,0 l/m 0 min 0 min 0 W/m 6,8 km/h (2 Bft) 100,00 %
12.06.2018 05:06 14,9 C 13,9 C 13,9 C 88 % 1009,5 hPa 0,0 l/m 0 min 0 min 0 W/m 6,8 km/h (2 Bft) 100,00 %
12.06.2018 05:08 14,9 C 13,9 C 13,9 C 88 % 1009,5 hPa 0,0 l/m 0 min 0 min 0 W/m 6,8 km/h (2 Bft) 100,00 %
12.06.2018 05:10 14,9 C 13,9 C 13,9 C 88 % 1009,4 hPa 0,0 l/m 0 min 0 min 0 W/m 4,5 km/h (1 Bft) 100,00 %
12.06.2018 05:12 14,9 C 13,9 C 13,9 C 88 % 1009,5 hPa 0,0 l/m 0 min 0 min 0 W/m 4,5 km/h (1 Bft) 100,00 %
12.06.2018 05:14 14,8 C 13,9 C 13,9 C 88 % 1009,5 hPa 0,0 l/m 0 min 0 min 0 W/m 0,0 km/h (0 Bft) 100,00 %
12.06.2018 05:16 14,8 C 13,9 C 13,9 C 88 % 1009,5 hPa 0,0 l/m 0 min 0 min 0 W/m 2,3 km/h (1 Bft) 100,00 %
12.06.2018 05:18 14,8 C 14,4 C 13,9 C 88 % 1009,5 hPa 0,0 l/m 0 min 0 min 0 W/m 4,5 km/h (1 Bft) 100,00 %
12.06.2018 05:20 14,8 C 14,4 C 13,9 C 88 % 1009,6 hPa 0,0 l/m 0 min 0 min 0 W/m 2,3 km/h (1 Bft) 100,00 %
12.06.2018 05:22 14,8 C 14,4 C 13,9 C 88 % 1009,6 hPa 0,0 l/m 0 min 0 min 0 W/m 2,3 km/h (1 Bft) 100,00 %
12.06.2018 05:24 14,8 C 14,4 C 13,9 C 88 % 1009,6 hPa 0,0 l/m 0 min 0 min 0 W/m 11,3 km/h (2 Bft) 100,00 %
12.06.2018 05:26 14,8 C 14,4 C 13,9 C 88 % 1009,6 hPa 0,0 l/m 0 min 0 min 0 W/m 4,5 km/h (1 Bft) 100,00 %
12.06.2018 05:28 14,8 C 14,4 C 13,9 C 88 % 1009,5 hPa 0,0 l/m 0 min 0 min 0 W/m 9,0 km/h (2 Bft) 100,00 %
12.06.2018 05:30 14,8 C 14,4 C 13,9 C 88 % 1009,5 hPa 0,0 l/m 0 min 0 min 0 W/m 6,8 km/h (2 Bft) 100,00 %
12.06.2018 05:32 14,8 C 14,4 C 13,9 C 88 % 1009,4 hPa 0,0 l/m 0 min 0 min 0 W/m 6,8 km/h (2 Bft) 100,00 %
12.06.2018 05:34 14,7 C 14,4 C 13,9 C 88 % 1009,5 hPa 0,0 l/m 0 min 0 min 0 W/m 6,8 km/h (2 Bft) 100,00 %
12.06.2018 05:35 14,7 C 14,4 C 13,9 C 88 % 1009,5 hPa 0,0 l/m 0 min 0 min 0 W/m 6,8 km/h (2 Bft) 100,00 %
12.06.2018 05:40 14,7 C 14,4 C 13,9 C 88 % 1009,6 hPa 0,0 l/m 0 min 0 min 2 W/m 9,0 km/h (2 Bft) 95,65 %
12.06.2018 05:42 14,7 C 14,4 C 13,9 C 89 % 1009,6 hPa 0,0 l/m 0 min 0 min 5 W/m 2,3 km/h (1 Bft) 100,00 %
12.06.2018 05:44 14,7 C 14,4 C 13,9 C 89 % 1009,6 hPa 0,0 l/m 0 min 0 min 5 W/m 6,8 km/h (2 Bft) 100,00 %
12.06.2018 05:46 14,7 C 14,4 C 13,9 C 89 % 1009,6 hPa 0,0 l/m 0 min 0 min 7 W/m 2,3 km/h (1 Bft) 97,83 %
12.06.2018 05:48 14,7 C 14,4 C 13,9 C 89 % 1009,5 hPa 0,0 l/m 0 min 0 min 8 W/m 4,5 km/h (1 Bft) 97,87 %
12.06.2018 05:50 14,7 C 14,4 C 13,9 C 89 % 1009,6 hPa 0,0 l/m 0 min 0 min 9 W/m 9,0 km/h (2 Bft) 95,74 %
12.06.2018 05:52 14,7 C 14,4 C 13,9 C 89 % 1009,6 hPa 0,0 l/m 0 min 0 min 11 W/m 4,5 km/h (1 Bft) 95,74 %
12.06.2018 05:54 14,7 C 14,4 C 13,9 C 89 % 1009,5 hPa 0,0 l/m 0 min 0 min 12 W/m 11,3 km/h (2 Bft) 96,30 %
12.06.2018 05:56 14,7 C 14,4 C 13,9 C 89 % 1009,5 hPa 0,0 l/m 0 min 0 min 15 W/m 6,8 km/h (2 Bft) 95,74 %
12.06.2018 05:58 14,7 C 14,4 C 13,9 C 89 % 1009,5 hPa 0,0 l/m 0 min 0 min 18 W/m 11,3 km/h (2 Bft) 91,30 %
12.06.2018 06:00 14,7 C 14,4 C 13,9 C 89 % 1009,6 hPa 0,0 l/m 0 min 0 min 16 W/m 4,5 km/h (1 Bft) 93,62 %
12.06.2018 06:02 14,7 C 14,4 C 13,9 C 89 % 1009,6 hPa 0,0 l/m 0 min 0 min 17 W/m 11,3 km/h (2 Bft) 91,49 %
12.06.2018 06:04 14,7 C 14,4 C 13,9 C 89 % 1009,6 hPa 0,0 l/m 0 min 0 min 18 W/m 6,8 km/h (2 Bft) 95,74 %
12.06.2018 06:08 14,7 C 14,4 C 13,9 C 89 % 1009,5 hPa 0,0 l/m 0 min 0 min 20 W/m 13,5 km/h (3 Bft) 94,85 %
12.06.2018 06:10 14,7 C 14,4 C 13,9 C 89 % 1009,6 hPa 0,0 l/m 0 min 0 min 25 W/m 11,3 km/h (2 Bft) 93,48 %
12.06.2018 06:12 14,7 C 14,4 C 13,9 C 89 % 1009,6 hPa 0,0 l/m 0 min 0 min 26 W/m 11,3 km/h (2 Bft) 93,62 %
12.06.2018 06:14 14,7 C 14,4 C 13,9 C 89 % 1009,6 hPa 0,0 l/m 0 min 0 min 27 W/m 6,8 km/h (2 Bft) 91,49 %
12.06.2018 06:16 14,7 C 14,4 C 14,4 C 89 % 1009,5 hPa 0,0 l/m 0 min 0 min 28 W/m 9,0 km/h (2 Bft) 93,62 %
12.06.2018 06:18 14,7 C 14,4 C 13,9 C 89 % 1009,6 hPa 0,0 l/m 0 min 0 min 28 W/m 11,3 km/h (2 Bft) 91,49 %
12.06.2018 06:20 14,7 C 14,4 C 13,9 C 89 % 1009,6 hPa 0,0 l/m 0 min 0 min 28 W/m 4,5 km/h (1 Bft) 91,49 %
12.06.2018 06:22 14,7 C 14,4 C 13,9 C 89 % 1009,6 hPa 0,0 l/m 0 min 0 min 28 W/m 4,5 km/h (1 Bft) 91,49 %
12.06.2018 06:24 14,7 C 14,4 C 14,4 C 89 % 1009,7 hPa 0,0 l/m 0 min 0 min 28 W/m 2,3 km/h (1 Bft) 93,75 %
12.06.2018 06:26 14,7 C 14,4 C 13,9 C 89 % 1009,6 hPa 0,0 l/m 0 min 0 min 28 W/m 9,0 km/h (2 Bft) 93,75 %
12.06.2018 06:28 14,7 C 14,4 C 13,9 C 89 % 1009,6 hPa 0,0 l/m 0 min 0 min 30 W/m 9,0 km/h (2 Bft) 91,49 %
12.06.2018 06:30 14,7 C 14,4 C 13,9 C 89 % 1009,7 hPa 0,0 l/m 0 min 0 min 31 W/m 9,0 km/h (2 Bft) 93,62 %
12.06.2018 06:32 14,7 C 14,4 C 13,9 C 88 % 1009,7 hPa 0,0 l/m 0 min 0 min 32 W/m 4,5 km/h (1 Bft) 91,30 %
12.06.2018 06:34 14,7 C 14,4 C 13,9 C 88 % 1009,6 hPa 0,0 l/m 0 min 0 min 33 W/m 6,8 km/h (2 Bft) 91,49 %
12.06.2018 06:36 14,7 C 14,4 C 13,9 C 88 % 1009,8 hPa 0,0 l/m 0 min 0 min 35 W/m 13,5 km/h (3 Bft) 91,49 %
12.06.2018 06:38 14,7 C 14,4 C 13,9 C 88 % 1009,8 hPa 0,0 l/m 0 min 0 min 38 W/m 9,0 km/h (2 Bft) 93,62 %
12.06.2018 06:40 14,7 C 14,4 C 13,9 C 88 % 1009,8 hPa 0,0 l/m 0 min 0 min 39 W/m 4,5 km/h (1 Bft) 95,74 %
12.06.2018 06:42 14,7 C 14,4 C 13,9 C 88 % 1009,8 hPa 0,0 l/m 0 min 0 min 40 W/m 6,8 km/h (2 Bft) 95,74 %
12.06.2018 06:44 14,7 C 14,4 C 13,9 C 88 % 1009,8 hPa 0,0 l/m 0 min 0 min 44 W/m 11,3 km/h (2 Bft) 91,30 %
12.06.2018 06:46 14,7 C 14,4 C 13,9 C 88 % 1009,8 hPa 0,0 l/m 0 min 0 min 46 W/m 6,8 km/h (2 Bft) 93,62 %
12.06.2018 06:48 14,7 C 14,4 C 13,9 C 88 % 1009,8 hPa 0,0 l/m 0 min 0 min 48 W/m 11,3 km/h (2 Bft) 95,74 %
12.06.2018 06:50 14,7 C 14,4 C 13,9 C 88 % 1009,8 hPa 0,0 l/m 0 min 0 min 50 W/m 9,0 km/h (2 Bft) 93,62 %
12.06.2018 06:52 14,7 C 14,4 C 13,9 C 88 % 1009,7 hPa 0,0 l/m 0 min 0 min 53 W/m 11,3 km/h (2 Bft) 95,74 %
12.06.2018 06:54 14,7 C 14,4 C 13,9 C 88 % 1009,7 hPa 0,0 l/m 0 min 0 min 52 W/m 11,3 km/h (2 Bft) 97,87 %
12.06.2018 06:56 14,7 C 14,4 C 13,9 C 88 % 1009,8 hPa 0,0 l/m 0 min 0 min 51 W/m 6,8 km/h (2 Bft) 97,83 %
12.06.2018 06:58 14,7 C 14,4 C 13,9 C 88 % 1009,8 hPa 0,0 l/m 0 min 0 min 50 W/m 4,5 km/h (1 Bft) 100,00 %
12.06.2018 07:00 14,7 C 14,4 C 13,9 C 88 % 1009,8 hPa 0,0 l/m 0 min 0 min 52 W/m 6,8 km/h (2 Bft) 100,00 %
12.06.2018 07:02 14,7 C 14,4 C 13,9 C 88 % 1009,8 hPa 0,0 l/m 0 min 0 min 53 W/m 11,3 km/h (2 Bft) 100,00 %
12.06.2018 07:04 14,7 C 14,4 C 13,9 C 88 % 1009,8 hPa 0,0 l/m 0 min 0 min 53 W/m 6,8 km/h (2 Bft) 100,00 %
12.06.2018 07:06 14,7 C 14,4 C 13,9 C 88 % 1009,8 hPa 0,0 l/m 0 min 0 min 51 W/m 6,8 km/h (2 Bft) 97,87 %
12.06.2018 07:08 14,7 C 14,4 C 13,9 C 88 % 1009,8 hPa 0,0 l/m 0 min 0 min 53 W/m 6,8 km/h (2 Bft) 97,83 %
12.06.2018 07:10 14,7 C 14,4 C 13,9 C 88 % 1009,8 hPa 0,0 l/m 0 min 0 min 63 W/m 6,8 km/h (2 Bft) 100,00 %
12.06.2018 07:12 14,7 C 14,4 C 13,9 C 88 % 1009,9 hPa 0,0 l/m 0 min 0 min 66 W/m 9,0 km/h (2 Bft) 100,00 %
12.06.2018 07:14 14,7 C 14,4 C 13,9 C 88 % 1009,8 hPa 0,0 l/m 0 min 0 min 69 W/m 6,8 km/h (2 Bft) 100,00 %
12.06.2018 07:16 14,7 C 14,4 C 13,9 C 88 % 1009,9 hPa 0,0 l/m 0 min 0 min 71 W/m 11,3 km/h (2 Bft) 97,87 %
12.06.2018 07:18 14,7 C 14,4 C 13,9 C 88 % 1009,9 hPa 0,0 l/m 0 min 0 min 73 W/m 11,3 km/h (2 Bft) 100,00 %
12.06.2018 07:20 14,7 C 14,4 C 13,9 C 88 % 1009,9 hPa 0,0 l/m 0 min 0 min 72 W/m 6,8 km/h (2 Bft) 100,00 %
12.06.2018 07:22 14,7 C 15,0 C 13,9 C 88 % 1009,9 hPa 0,0 l/m 0 min 0 min 73 W/m 6,8 km/h (2 Bft) 97,87 %
12.06.2018 07:24 14,7 C 15,0 C 13,9 C 88 % 1010,0 hPa 0,0 l/m 0 min 0 min 72 W/m 6,8 km/h (2 Bft) 100,00 %
12.06.2018 07:26 14,7 C 15,0 C 14,4 C 88 % 1010,0 hPa 0,0 l/m 0 min 0 min 79 W/m 6,8 km/h (2 Bft) 100,00 %
12.06.2018 07:28 14,7 C 15,0 C 14,4 C 88 % 1010,0 hPa 0,0 l/m 0 min 0 min 85 W/m 4,5 km/h (1 Bft) 100,00 %
12.06.2018 07:30 14,8 C 15,0 C 14,4 C 88 % 1010,0 hPa 0,0 l/m 0 min 0 min 93 W/m 4,5 km/h (1 Bft) 100,00 %
12.06.2018 07:32 14,8 C 15,0 C 14,4 C 88 % 1010,1 hPa 0,0 l/m 0 min 0 min 96 W/m 11,3 km/h (2 Bft) 100,00 %
12.06.2018 07:34 14,8 C 15,0 C 14,4 C 88 % 1010,1 hPa 0,0 l/m 0 min 0 min 109 W/m 9,0 km/h (2 Bft) 100,00 %
12.06.2018 07:36 14,8 C 15,0 C 14,4 C 88 % 1010,1 hPa 0,0 l/m 0 min 0 min 112 W/m 6,8 km/h (2 Bft) 100,00 %
12.06.2018 07:38 14,8 C 15,6 C 14,4 C 88 % 1010,1 hPa 0,0 l/m 0 min 0 min 123 W/m 11,3 km/h (2 Bft) 100,00 %
12.06.2018 07:40 14,8 C 15,6 C 14,4 C 88 % 1010,2 hPa 0,0 l/m 0 min 0 min 154 W/m 6,8 km/h (2 Bft) 100,00 %
12.06.2018 07:42 14,8 C 15,6 C 14,4 C 88 % 1010,2 hPa 0,0 l/m 0 min 0 min 138 W/m 11,3 km/h (2 Bft) 100,00 %
12.06.2018 07:44 14,9 C 15,6 C 14,4 C 88 % 1010,2 hPa 0,0 l/m 0 min 0 min 125 W/m 9,0 km/h (2 Bft) 100,00 %
12.06.2018 07:46 14,9 C 15,6 C 14,4 C 88 % 1010,2 hPa 0,0 l/m 0 min 0 min 128 W/m 6,8 km/h (2 Bft) 100,00 %
12.06.2018 07:48 14,9 C 15,6 C 14,4 C 88 % 1010,2 hPa 0,0 l/m 0 min 0 min 130 W/m 9,0 km/h (2 Bft) 100,00 %
12.06.2018 07:50 14,9 C 15,6 C 14,4 C 88 % 1010,1 hPa 0,0 l/m 0 min 0 min 134 W/m 9,0 km/h (2 Bft) 100,00 %
12.06.2018 07:52 14,9 C 15,6 C 14,4 C 88 % 1010,2 hPa 0,0 l/m 0 min 0 min 134 W/m 9,0 km/h (2 Bft) 100,00 %
12.06.2018 07:54 15,0 C 16,1 C 14,4 C 87 % 1010,2 hPa 0,0 l/m 0 min 0 min 134 W/m 6,8 km/h (2 Bft) 97,83 %
12.06.2018 07:56 15,0 C 15,6 C 14,4 C 87 % 1010,2 hPa 0,0 l/m 0 min 0 min 134 W/m 13,5 km/h (3 Bft) 100,00 %
12.06.2018 07:58 15,0 C 16,1 C 14,4 C 87 % 1010,2 hPa 0,0 l/m 0 min 0 min 142 W/m 11,3 km/h (2 Bft) 100,00 %
12.06.2018 08:00 15,1 C 16,7 C 14,4 C 87 % 1010,2 hPa 0,0 l/m 0 min 0 min 153 W/m 9,0 km/h (2 Bft) 100,00 %
12.06.2018 08:02 15,1 C 16,1 C 14,4 C 87 % 1010,3 hPa 0,0 l/m 0 min 0 min 150 W/m 9,0 km/h (2 Bft) 100,00 %
12.06.2018 08:04 15,1 C 16,1 C 14,4 C 87 % 1010,3 hPa 0,0 l/m 0 min 0 min 150 W/m 9,0 km/h (2 Bft) 100,00 %
12.06.2018 08:06 15,1 C 16,1 C 14,4 C 87 % 1010,3 hPa 0,0 l/m 0 min 0 min 150 W/m 6,8 km/h (2 Bft) 100,00 %
12.06.2018 08:08 15,2 C 16,1 C 14,4 C 87 % 1010,3 hPa 0,0 l/m 0 min 0 min 145 W/m 4,5 km/h (1 Bft) 100,00 %
12.06.2018 08:10 15,2 C 16,1 C 14,4 C 87 % 1010,4 hPa 0,0 l/m 0 min 0 min 148 W/m 11,3 km/h (2 Bft) 100,00 %
12.06.2018 08:12 15,2 C 16,1 C 14,4 C 86 % 1010,4 hPa 0,0 l/m 0 min 0 min 146 W/m 9,0 km/h (2 Bft) 100,00 %
12.06.2018 08:14 15,3 C 16,1 C 14,4 C 86 % 1010,4 hPa 0,0 l/m 0 min 0 min 145 W/m 6,8 km/h (2 Bft) 100,00 %
12.06.2018 08:16 15,3 C 16,1 C 14,4 C 86 % 1010,4 hPa 0,0 l/m 0 min 0 min 142 W/m 9,0 km/h (2 Bft) 100,00 %
12.06.2018 08:18 15,3 C 15,6 C 14,4 C 86 % 1010,4 hPa 0,0 l/m 0 min 0 min 139 W/m 9,0 km/h (2 Bft) 100,00 %
12.06.2018 08:20 15,3 C 15,6 C 14,4 C 86 % 1010,4 hPa 0,0 l/m 0 min 0 min 140 W/m 9,0 km/h (2 Bft) 100,00 %
12.06.2018 08:22 15,3 C 15,6 C 14,4 C 86 % 1010,4 hPa 0,0 l/m 0 min 0 min 141 W/m 13,5 km/h (3 Bft) 100,00 %
12.06.2018 08:24 15,3 C 15,6 C 14,4 C 86 % 1010,5 hPa 0,0 l/m 0 min 0 min 142 W/m 15,8 km/h (3 Bft) 100,00 %
12.06.2018 08:26 15,3 C 15,6 C 14,4 C 86 % 1010,5 hPa 0,0 l/m 0 min 0 min 142 W/m 6,8 km/h (2 Bft) 100,00 %
12.06.2018 08:28 15,4 C 15,6 C 14,4 C 86 % 1010,5 hPa 0,0 l/m 0 min 0 min 145 W/m 11,3 km/h (2 Bft) 100,00 %
12.06.2018 08:30 15,4 C 15,6 C 14,4 C 86 % 1010,5 hPa 0,0 l/m 0 min 0 min 146 W/m 11,3 km/h (2 Bft) 100,00 %
12.06.2018 08:32 15,4 C 15,6 C 15,0 C 86 % 1010,5 hPa 0,0 l/m 0 min 0 min 148 W/m 9,0 km/h (2 Bft) 100,00 %
12.06.2018 08:34 15,4 C 15,6 C 15,0 C 86 % 1010,5 hPa 0,0 l/m 0 min 0 min 148 W/m 11,3 km/h (2 Bft) 97,87 %
12.06.2018 08:36 15,4 C 15,6 C 15,0 C 85 % 1010,5 hPa 0,0 l/m 0 min 0 min 148 W/m 11,3 km/h (2 Bft) 95,74 %
12.06.2018 08:38 15,4 C 15,6 C 15,0 C 85 % 1010,6 hPa 0,0 l/m 0 min 0 min 148 W/m 9,0 km/h (2 Bft) 95,74 %
12.06.2018 08:40 15,4 C 15,6 C 15,0 C 85 % 1010,5 hPa 0,0 l/m 0 min 0 min 151 W/m 9,0 km/h (2 Bft) 91,49 %
12.06.2018 08:42 15,4 C 15,6 C 15,0 C 85 % 1010,5 hPa 0,0 l/m 0 min 0 min 154 W/m 15,8 km/h (3 Bft) 97,83 %
12.06.2018 08:44 15,4 C 15,6 C 15,0 C 85 % 1010,5 hPa 0,0 l/m 0 min 0 min 154 W/m 6,8 km/h (2 Bft) 97,87 %
12.06.2018 08:46 15,4 C 16,1 C 15,0 C 85 % 1010,6 hPa 0,0 l/m 0 min 0 min 154 W/m 6,8 km/h (2 Bft) 95,74 %
12.06.2018 08:48 15,5 C 16,1 C 15,0 C 85 % 1010,6 hPa 0,0 l/m 0 min 0 min 155 W/m 6,8 km/h (2 Bft) 95,74 %
12.06.2018 08:50 15,5 C 15,6 C 15,0 C 85 % 1010,5 hPa 0,0 l/m 0 min 0 min 154 W/m 15,8 km/h (3 Bft) 97,87 %
12.06.2018 08:52 15,5 C 15,6 C 15,0 C 84 % 1010,6 hPa 0,0 l/m 0 min 0 min 152 W/m 9,0 km/h (2 Bft) 93,48 %
12.06.2018 08:54 15,5 C 15,6 C 15,0 C 84 % 1010,6 hPa 0,0 l/m 0 min 0 min 151 W/m 13,5 km/h (3 Bft) 95,74 %
12.06.2018 08:56 15,5 C 15,6 C 15,0 C 84 % 1010,5 hPa 0,0 l/m 0 min 0 min 155 W/m 9,0 km/h (2 Bft) 95,74 %
12.06.2018 08:58 15,5 C 15,6 C 15,0 C 84 % 1010,5 hPa 0,0 l/m 0 min 0 min 163 W/m 9,0 km/h (2 Bft) 93,62 %
12.06.2018 09:00 15,5 C 16,1 C 15,0 C 84 % 1010,5 hPa 0,0 l/m 0 min 0 min 168 W/m 9,0 km/h (2 Bft) 95,74 %
12.06.2018 09:02 15,6 C 16,1 C 15,0 C 84 % 1010,5 hPa 0,0 l/m 0 min 0 min 168 W/m 11,3 km/h (2 Bft) 95,74 %
12.06.2018 09:04 15,6 C 16,1 C 15,0 C 84 % 1010,4 hPa 0,0 l/m 0 min 0 min 167 W/m 6,8 km/h (2 Bft) 95,74 %
12.06.2018 09:06 15,6 C 16,1 C 15,0 C 84 % 1010,5 hPa 0,0 l/m 0 min 0 min 168 W/m 6,8 km/h (2 Bft) 93,48 %
12.06.2018 09:08 15,6 C 16,1 C 15,0 C 84 % 1010,4 hPa 0,0 l/m 0 min 0 min 171 W/m 9,0 km/h (2 Bft) 95,74 %
12.06.2018 09:10 15,6 C 16,1 C 15,0 C 84 % 1010,4 hPa 0,0 l/m 0 min 0 min 177 W/m 6,8 km/h (2 Bft) 95,74 %
12.06.2018 09:12 15,6 C 16,1 C 15,0 C 84 % 1010,4 hPa 0,0 l/m 0 min 0 min 181 W/m 11,3 km/h (2 Bft) 95,74 %
12.06.2018 09:14 15,6 C 16,1 C 15,0 C 84 % 1010,4 hPa 0,0 l/m 0 min 0 min 182 W/m 6,8 km/h (2 Bft) 93,62 %
12.06.2018 09:16 15,7 C 16,1 C 15,0 C 83 % 1010,5 hPa 0,0 l/m 0 min 0 min 180 W/m 11,3 km/h (2 Bft) 95,65 %
12.06.2018 09:18 15,7 C 16,1 C 15,0 C 83 % 1010,5 hPa 0,0 l/m 0 min 0 min 188 W/m 9,0 km/h (2 Bft) 97,87 %
12.06.2018 09:20 15,7 C 16,7 C 15,0 C 83 % 1010,5 hPa 0,0 l/m 0 min 0 min 195 W/m 9,0 km/h (2 Bft) 97,87 %
12.06.2018 09:22 15,7 C 16,7 C 15,0 C 83 % 1010,5 hPa 0,0 l/m 0 min 0 min 204 W/m 11,3 km/h (2 Bft) 97,87 %
12.06.2018 09:24 15,7 C 16,7 C 15,0 C 83 % 1010,5 hPa 0,0 l/m 0 min 0 min 209 W/m 13,5 km/h (3 Bft) 96,30 %
12.06.2018 09:26 15,7 C 16,7 C 15,0 C 83 % 1010,4 hPa 0,0 l/m 0 min 0 min 213 W/m 11,3 km/h (2 Bft) 93,62 %
12.06.2018 09:28 15,7 C 16,7 C 15,0 C 82 % 1010,5 hPa 0,0 l/m 0 min 0 min 218 W/m 6,8 km/h (2 Bft) 95,65 %
12.06.2018 09:30 15,8 C 16,7 C 15,0 C 82 % 1010,6 hPa 0,0 l/m 0 min 0 min 222 W/m 13,5 km/h (3 Bft) 95,74 %
12.06.2018 09:32 15,8 C 16,7 C 15,0 C 82 % 1010,5 hPa 0,0 l/m 0 min 0 min 227 W/m 6,8 km/h (2 Bft) 89,36 %
12.06.2018 09:34 15,8 C 16,7 C 15,0 C 82 % 1010,5 hPa 0,0 l/m 0 min 0 min 230 W/m 11,3 km/h (2 Bft) 93,62 %
12.06.2018 09:36 15,8 C 16,7 C 15,0 C 82 % 1010,5 hPa 0,0 l/m 0 min 0 min 231 W/m 11,3 km/h (2 Bft) 95,74 %
12.06.2018 09:38 15,8 C 16,7 C 15,0 C 82 % 1010,5 hPa 0,0 l/m 0 min 0 min 233 W/m 9,0 km/h (2 Bft) 97,87 %
12.06.2018 09:40 15,9 C 17,2 C 15,0 C 82 % 1010,6 hPa 0,0 l/m 0 min 0 min 235 W/m 9,0 km/h (2 Bft) 97,83 %
12.06.2018 09:42 15,9 C 17,2 C 15,6 C 82 % 1010,6 hPa 0,0 l/m 0 min 0 min 227 W/m 11,3 km/h (2 Bft) 97,87 %
12.06.2018 09:44 15,9 C 17,8 C 15,6 C 82 % 1010,6 hPa 0,0 l/m 2 min 0 min 593 W/m 11,3 km/h (2 Bft) 97,87 %
12.06.2018 09:46 16,0 C 18,9 C 15,6 C 81 % 1010,7 hPa 0,0 l/m 2 min 0 min 615 W/m 9,0 km/h (2 Bft) 97,87 %
12.06.2018 09:48 16,1 C 18,9 C 15,6 C 81 % 1010,6 hPa 0,0 l/m 2 min 0 min 619 W/m 11,3 km/h (2 Bft) 97,87 %
12.06.2018 09:50 16,1 C 18,9 C 15,6 C 81 % 1010,6 hPa 0,0 l/m 2 min 0 min 623 W/m 6,8 km/h (2 Bft) 97,87 %
12.06.2018 09:52 16,1 C 18,3 C 15,6 C 81 % 1010,6 hPa 0,0 l/m 2 min 0 min 627 W/m 15,8 km/h (3 Bft) 97,87 %
12.06.2018 09:54 16,2 C 18,3 C 15,6 C 81 % 1010,6 hPa 0,0 l/m 2 min 0 min 631 W/m 6,8 km/h (2 Bft) 97,37 %
12.06.2018 09:56 16,2 C 18,3 C 15,6 C 81 % 1010,7 hPa 0,0 l/m 2 min 0 min 635 W/m 11,3 km/h (2 Bft) 97,87 %
12.06.2018 09:58 16,3 C 18,3 C 15,6 C 81 % 1010,6 hPa 0,0 l/m 2 min 0 min 640 W/m 11,3 km/h (2 Bft) 97,87 %
12.06.2018 10:00 16,3 C 18,3 C 16,1 C 81 % 1010,7 hPa 0,0 l/m 2 min 0 min 644 W/m 11,3 km/h (2 Bft) 97,87 %
12.06.2018 10:02 16,4 C 18,9 C 16,1 C 80 % 1010,7 hPa 0,0 l/m 2 min 0 min 648 W/m 9,0 km/h (2 Bft) 97,87 %
12.06.2018 10:04 16,4 C 18,9 C 16,1 C 80 % 1010,6 hPa 0,0 l/m 2 min 0 min 651 W/m 11,3 km/h (2 Bft) 97,87 %
12.06.2018 10:06 16,5 C 18,9 C 16,1 C 80 % 1010,6 hPa 0,0 l/m 2 min 0 min 655 W/m 9,0 km/h (2 Bft) 97,87 %
12.06.2018 10:08 16,6 C 18,9 C 16,1 C 80 % 1010,6 hPa 0,0 l/m 2 min 0 min 659 W/m 9,0 km/h (2 Bft) 97,87 %
12.06.2018 10:10 16,7 C 18,9 C 16,1 C 80 % 1010,7 hPa 0,0 l/m 2 min 0 min 663 W/m 6,8 km/h (2 Bft) 97,87 %
12.06.2018 10:12 16,8 C 19,4 C 16,1 C 80 % 1010,7 hPa 0,0 l/m 2 min 0 min 667 W/m 6,8 km/h (2 Bft) 97,87 %
12.06.2018 10:14 16,8 C 19,4 C 16,1 C 79 % 1010,7 hPa 0,0 l/m 2 min 0 min 372 W/m 9,0 km/h (2 Bft) 97,83 %
12.06.2018 10:16 16,8 C 19,4 C 16,1 C 79 % 1010,6 hPa 0,0 l/m 2 min 0 min 350 W/m 6,8 km/h (2 Bft) 100,00 %
12.06.2018 10:18 16,8 C 19,4 C 16,1 C 79 % 1010,6 hPa 0,0 l/m 2 min 0 min 346 W/m 6,8 km/h (2 Bft) 100,00 %
12.06.2018 10:20 16,9 C 19,4 C 16,1 C 80 % 1010,6 hPa 0,0 l/m 2 min 0 min 347 W/m 6,8 km/h (2 Bft) 100,00 %
12.06.2018 10:22 16,9 C 19,4 C 16,1 C 78 % 1010,6 hPa 0,0 l/m 2 min 0 min 355 W/m 6,8 km/h (2 Bft) 97,87 %
12.06.2018 10:24 16,9 C 18,9 C 16,1 C 78 % 1010,7 hPa 0,0 l/m 2 min 0 min 373 W/m 13,5 km/h (3 Bft) 97,87 %
12.06.2018 10:26 16,8 C 18,9 C 16,1 C 78 % 1010,6 hPa 0,0 l/m 2 min 0 min 408 W/m 11,3 km/h (2 Bft) 100,00 %
12.06.2018 10:28 16,8 C 19,4 C 16,1 C 79 % 1010,6 hPa 0,0 l/m 2 min 0 min 404 W/m 9,0 km/h (2 Bft) 97,87 %
12.06.2018 10:30 16,9 C 19,4 C 16,1 C 79 % 1010,6 hPa 0,0 l/m 2 min 0 min 400 W/m 9,0 km/h (2 Bft) 97,87 %
12.06.2018 10:32 16,9 C 18,9 C 16,1 C 78 % 1010,7 hPa 0,0 l/m 2 min 0 min 419 W/m 6,8 km/h (2 Bft) 100,00 %
12.06.2018 10:34 17,0 C 19,4 C 16,1 C 78 % 1010,6 hPa 0,0 l/m 2 min 0 min 436 W/m 6,8 km/h (2 Bft) 100,00 %
12.06.2018 10:36 17,1 C 18,9 C 16,1 C 78 % 1010,7 hPa 0,0 l/m 2 min 0 min 466 W/m 11,3 km/h (2 Bft) 97,87 %
12.06.2018 10:38 17,1 C 19,4 C 16,1 C 77 % 1010,6 hPa 0,0 l/m 2 min 0 min 421 W/m 11,3 km/h (2 Bft) 100,00 %
12.06.2018 10:40 17,1 C 18,9 C 16,1 C 77 % 1010,6 hPa 0,0 l/m 2 min 0 min 393 W/m 9,0 km/h (2 Bft) 100,00 %
12.06.2018 10:42 17,1 C 18,9 C 16,1 C 78 % 1010,7 hPa 0,0 l/m 2 min 0 min 379 W/m 6,8 km/h (2 Bft) 100,00 %
12.06.2018 10:44 17,1 C 19,4 C 16,7 C 78 % 1010,7 hPa 0,0 l/m 2 min 0 min 383 W/m 6,8 km/h (2 Bft) 100,00 %
12.06.2018 10:46 17,2 C 18,9 C 16,7 C 78 % 1010,7 hPa 0,0 l/m 2 min 0 min 382 W/m 13,5 km/h (3 Bft) 97,87 %
12.06.2018 10:48 17,2 C 19,4 C 16,7 C 78 % 1010,7 hPa 0,0 l/m 2 min 0 min 394 W/m 9,0 km/h (2 Bft) 100,00 %
12.06.2018 10:50 17,2 C 19,4 C 16,7 C 78 % 1010,7 hPa 0,0 l/m 2 min 0 min 407 W/m 9,0 km/h (2 Bft) 100,00 %
12.06.2018 10:52 17,2 C 18,9 C 16,7 C 77 % 1010,7 hPa 0,0 l/m 2 min 0 min 407 W/m 9,0 km/h (2 Bft) 97,87 %
12.06.2018 10:54 17,2 C 19,4 C 16,7 C 77 % 1010,7 hPa 0,0 l/m 2 min 0 min 407 W/m 9,0 km/h (2 Bft) 100,00 %
12.06.2018 10:56 17,2 C 19,4 C 16,7 C 77 % 1010,7 hPa 0,0 l/m 2 min 0 min 431 W/m 9,0 km/h (2 Bft) 100,00 %
12.06.2018 10:58 17,2 C 20,0 C 16,7 C 77 % 1010,7 hPa 0,0 l/m 2 min 0 min 445 W/m 9,0 km/h (2 Bft) 100,00 %
12.06.2018 11:00 17,4 C 20,0 C 16,7 C 77 % 1010,7 hPa 0,0 l/m 2 min 0 min 429 W/m 6,8 km/h (2 Bft) 97,87 %
12.06.2018 11:02 17,4 C 20,0 C 16,7 C 77 % 1010,7 hPa 0,0 l/m 2 min 0 min 409 W/m 11,3 km/h (2 Bft) 97,83 %
12.06.2018 11:04 17,4 C 20,0 C 16,7 C 76 % 1010,7 hPa 0,0 l/m 2 min 0 min 388 W/m 6,8 km/h (2 Bft) 97,87 %
12.06.2018 11:06 17,4 C 20,0 C 16,7 C 77 % 1010,7 hPa 0,0 l/m 2 min 0 min 383 W/m 9,0 km/h (2 Bft) 97,87 %
12.06.2018 11:08 17,4 C 20,0 C 16,7 C 76 % 1010,7 hPa 0,0 l/m 2 min 0 min 394 W/m 6,8 km/h (2 Bft) 97,87 %
12.06.2018 11:10 17,4 C 20,0 C 16,7 C 76 % 1010,7 hPa 0,0 l/m 2 min 0 min 416 W/m 9,0 km/h (2 Bft) 97,87 %
12.06.2018 11:12 17,4 C 20,0 C 16,7 C 76 % 1010,7 hPa 0,0 l/m 2 min 0 min 427 W/m 6,8 km/h (2 Bft) 97,87 %
12.06.2018 11:14 17,5 C 20,0 C 16,7 C 77 % 1010,7 hPa 0,0 l/m 2 min 0 min 457 W/m 6,8 km/h (2 Bft) 95,65 %
12.06.2018 11:16 17,7 C 20,6 C 16,7 C 77 % 1010,8 hPa 0,0 l/m 2 min 0 min 478 W/m 9,0 km/h (2 Bft) 95,74 %
12.06.2018 11:18 17,8 C 21,1 C 17,2 C 76 % 1010,7 hPa 0,0 l/m 2 min 0 min 512 W/m 13,5 km/h (3 Bft) 97,87 %
12.06.2018 11:20 17,9 C 21,1 C 17,2 C 75 % 1010,7 hPa 0,0 l/m 2 min 0 min 535 W/m 6,8 km/h (2 Bft) 97,87 %
12.06.2018 11:22 18,1 C 21,1 C 17,2 C 76 % 1010,8 hPa 0,0 l/m 2 min 0 min 528 W/m 9,0 km/h (2 Bft) 98,11 %
12.06.2018 11:24 18,1 C 21,7 C 17,2 C 75 % 1010,8 hPa 0,0 l/m 2 min 0 min 515 W/m 9,0 km/h (2 Bft) 97,87 %
12.06.2018 11:26 18,2 C 21,7 C 17,2 C 74 % 1010,8 hPa 0,0 l/m 2 min 0 min 530 W/m 6,8 km/h (2 Bft) 97,83 %
12.06.2018 11:28 18,2 C 22,2 C 17,2 C 74 % 1010,8 hPa 0,0 l/m 2 min 0 min 492 W/m 6,8 km/h (2 Bft) 97,87 %
12.06.2018 11:30 18,2 C 21,7 C 17,2 C 75 % 1010,9 hPa 0,0 l/m 2 min 0 min 456 W/m 6,8 km/h (2 Bft) 97,87 %
12.06.2018 11:32 18,2 C 21,1 C 17,2 C 74 % 1010,8 hPa 0,0 l/m 2 min 0 min 440 W/m 11,3 km/h (2 Bft) 95,74 %
12.06.2018 11:34 18,3 C 21,1 C 17,2 C 74 % 1010,9 hPa 0,0 l/m 2 min 0 min 437 W/m 6,8 km/h (2 Bft) 97,87 %
12.06.2018 11:36 18,3 C 20,6 C 17,2 C 74 % 1010,9 hPa 0,0 l/m 2 min 0 min 434 W/m 11,3 km/h (2 Bft) 97,87 %
12.06.2018 11:38 18,3 C 20,6 C 16,7 C 73 % 1010,9 hPa 0,0 l/m 2 min 0 min 432 W/m 9,0 km/h (2 Bft) 97,83 %
12.06.2018 11:40 18,4 C 20,0 C 17,2 C 73 % 1010,9 hPa 0,0 l/m 2 min 0 min 430 W/m 9,0 km/h (2 Bft) 97,87 %
12.06.2018 11:42 18,4 C 20,0 C 17,2 C 73 % 1010,9 hPa 0,0 l/m 2 min 0 min 430 W/m 6,8 km/h (2 Bft) 95,74 %
12.06.2018 11:44 18,4 C 20,6 C 17,2 C 73 % 1011,0 hPa 0,0 l/m 2 min 0 min 438 W/m 4,5 km/h (1 Bft) 95,74 %
12.06.2018 11:46 18,4 C 20,6 C 17,2 C 73 % 1011,0 hPa 0,0 l/m 2 min 0 min 424 W/m 6,8 km/h (2 Bft) 100,00 %
12.06.2018 11:48 18,5 C 20,6 C 17,2 C 73 % 1010,9 hPa 0,0 l/m 2 min 0 min 424 W/m 9,0 km/h (2 Bft) 93,62 %
12.06.2018 11:50 18,6 C 20,6 C 17,2 C 74 % 1011,0 hPa 0,0 l/m 2 min 0 min 422 W/m 9,0 km/h (2 Bft) 97,83 %
12.06.2018 11:52 18,6 C 21,1 C 17,2 C 73 % 1010,9 hPa 0,0 l/m 2 min 0 min 419 W/m 4,5 km/h (1 Bft) 97,92 %
12.06.2018 11:54 18,6 C 20,6 C 17,2 C 73 % 1010,9 hPa 0,0 l/m 2 min 0 min 418 W/m 9,0 km/h (2 Bft) 97,87 %
12.06.2018 11:56 18,6 C 20,6 C 17,2 C 72 % 1011,0 hPa 0,0 l/m 2 min 0 min 413 W/m 9,0 km/h (2 Bft) 100,00 %
12.06.2018 11:58 18,6 C 20,6 C 17,2 C 72 % 1011,0 hPa 0,0 l/m 2 min 0 min 412 W/m 4,5 km/h (1 Bft) 95,74 %
12.06.2018 12:00 18,6 C 20,6 C 17,2 C 72 % 1011,0 hPa 0,0 l/m 2 min 0 min 416 W/m 9,0 km/h (2 Bft) 97,83 %
12.06.2018 12:02 18,6 C 20,0 C 17,2 C 71 % 1011,0 hPa 0,0 l/m 2 min 0 min 411 W/m 4,5 km/h (1 Bft) 97,87 %
12.06.2018 12:04 18,6 C 20,6 C 17,2 C 72 % 1011,1 hPa 0,0 l/m 2 min 0 min 419 W/m 9,0 km/h (2 Bft) 97,87 %
12.06.2018 12:08 18,7 C 20,6 C 17,2 C 72 % 1011,3 hPa 0,0 l/m 4 min 0 min 425 W/m 9,0 km/h (2 Bft) 97,94 %
12.06.2018 12:10 18,7 C 20,6 C 17,2 C 71 % 1011,3 hPa 0,0 l/m 2 min 0 min 423 W/m 9,0 km/h (2 Bft) 97,87 %
12.06.2018 12:12 18,7 C 20,0 C 17,2 C 71 % 1011,3 hPa 0,0 l/m 2 min 0 min 420 W/m 6,8 km/h (2 Bft) 97,83 %
12.06.2018 12:14 18,7 C 20,0 C 17,2 C 71 % 1011,3 hPa 0,0 l/m 2 min 0 min 415 W/m 11,3 km/h (2 Bft) 97,87 %
12.06.2018 12:16 18,7 C 20,0 C 17,2 C 71 % 1011,3 hPa 0,0 l/m 0 min 0 min 405 W/m 9,0 km/h (2 Bft) 95,74 %
12.06.2018 12:18 18,7 C 20,0 C 17,2 C 71 % 1011,3 hPa 0,0 l/m 0 min 0 min 398 W/m 9,0 km/h (2 Bft) 95,74 %
12.06.2018 12:20 18,7 C 20,0 C 17,2 C 71 % 1011,3 hPa 0,0 l/m 0 min 0 min 397 W/m 4,5 km/h (1 Bft) 95,74 %
12.06.2018 12:22 18,7 C 20,6 C 17,2 C 72 % 1011,3 hPa 0,0 l/m 0 min 0 min 405 W/m 4,5 km/h (1 Bft) 95,74 %
12.06.2018 12:24 18,8 C 20,6 C 17,2 C 72 % 1011,3 hPa 0,0 l/m 2 min 0 min 424 W/m 6,8 km/h (2 Bft) 95,65 %
12.06.2018 12:26 18,8 C 20,6 C 17,2 C 71 % 1011,3 hPa 0,0 l/m 2 min 0 min 446 W/m 9,0 km/h (2 Bft) 95,74 %
12.06.2018 12:28 18,8 C 20,6 C 17,2 C 71 % 1011,3 hPa 0,0 l/m 2 min 0 min 463 W/m 6,8 km/h (2 Bft) 97,87 %
12.06.2018 12:30 18,8 C 20,6 C 17,2 C 71 % 1011,3 hPa 0,0 l/m 2 min 0 min 463 W/m 11,3 km/h (2 Bft) 95,74 %
12.06.2018 12:32 18,8 C 20,6 C 17,2 C 71 % 1011,2 hPa 0,0 l/m 2 min 0 min 442 W/m 9,0 km/h (2 Bft) 95,74 %
12.06.2018 12:34 18,9 C 20,6 C 17,8 C 72 % 1011,2 hPa 0,0 l/m 2 min 0 min 425 W/m 6,8 km/h (2 Bft) 95,74 %
12.06.2018 12:36 18,9 C 20,0 C 17,2 C 71 % 1011,2 hPa 0,0 l/m 0 min 0 min 416 W/m 9,0 km/h (2 Bft) 95,65 %
12.06.2018 12:38 18,9 C 20,6 C 17,2 C 70 % 1011,2 hPa 0,0 l/m 2 min 0 min 420 W/m 6,8 km/h (2 Bft) 95,74 %
12.06.2018 12:40 18,9 C 21,1 C 17,8 C 71 % 1011,3 hPa 0,0 l/m 2 min 0 min 443 W/m 6,8 km/h (2 Bft) 95,74 %
12.06.2018 12:42 18,9 C 21,1 C 17,8 C 71 % 1011,1 hPa 0,0 l/m 2 min 0 min 457 W/m 6,8 km/h (2 Bft) 95,74 %
12.06.2018 12:44 19,0 C 21,1 C 17,8 C 72 % 1011,1 hPa 0,0 l/m 2 min 0 min 448 W/m 6,8 km/h (2 Bft) 95,74 %
12.06.2018 12:46 19,0 C 21,1 C 17,8 C 72 % 1011,1 hPa 0,0 l/m 2 min 0 min 429 W/m 6,8 km/h (2 Bft) 95,65 %
12.06.2018 12:48 19,1 C 21,1 C 17,8 C 72 % 1011,0 hPa 0,0 l/m 0 min 0 min 415 W/m 6,8 km/h (2 Bft) 93,62 %
12.06.2018 12:50 19,1 C 21,1 C 17,8 C 71 % 1011,1 hPa 0,0 l/m 0 min 0 min 415 W/m 9,0 km/h (2 Bft) 95,74 %
12.06.2018 12:52 19,1 C 21,1 C 17,8 C 71 % 1011,0 hPa 0,0 l/m 0 min 0 min 419 W/m 6,8 km/h (2 Bft) 95,74 %
12.06.2018 12:54 19,1 C 21,1 C 17,8 C 71 % 1011,0 hPa 0,0 l/m 2 min 0 min 426 W/m 9,0 km/h (2 Bft) 97,30 %
12.06.2018 12:56 19,1 C 21,1 C 17,8 C 71 % 1011,0 hPa 0,0 l/m 2 min 0 min 429 W/m 6,8 km/h (2 Bft) 97,87 %
12.06.2018 12:58 19,2 C 21,1 C 17,8 C 71 % 1011,0 hPa 0,0 l/m 0 min 0 min 415 W/m 4,5 km/h (1 Bft) 97,87 %
12.06.2018 13:00 19,2 C 21,1 C 17,8 C 71 % 1011,0 hPa 0,0 l/m 0 min 0 min 408 W/m 6,8 km/h (2 Bft) 97,83 %
12.06.2018 13:02 19,2 C 21,1 C 17,8 C 71 % 1011,0 hPa 0,0 l/m 0 min 0 min 405 W/m 6,8 km/h (2 Bft) 95,74 %
12.06.2018 13:04 19,2 C 20,6 C 17,8 C 70 % 1011,0 hPa 0,0 l/m 0 min 0 min 398 W/m 6,8 km/h (2 Bft) 97,87 %
12.06.2018 13:06 19,2 C 20,6 C 17,8 C 70 % 1011,0 hPa 0,0 l/m 0 min 0 min 388 W/m 11,3 km/h (2 Bft) 97,87 %
12.06.2018 13:08 19,2 C 20,6 C 17,8 C 70 % 1011,0 hPa 0,0 l/m 0 min 0 min 380 W/m 9,0 km/h (2 Bft) 97,87 %
12.06.2018 13:10 19,2 C 20,0 C 17,8 C 70 % 1011,1 hPa 0,0 l/m 0 min 0 min 377 W/m 9,0 km/h (2 Bft) 100,00 %
12.06.2018 13:12 19,2 C 20,6 C 17,8 C 71 % 1011,1 hPa 0,0 l/m 0 min 0 min 375 W/m 4,5 km/h (1 Bft) 100,00 %
12.06.2018 13:14 19,2 C 20,6 C 17,8 C 71 % 1011,0 hPa 0,0 l/m 0 min 0 min 377 W/m 6,8 km/h (2 Bft) 100,00 %
12.06.2018 13:16 19,2 C 21,1 C 17,8 C 71 % 1011,0 hPa 0,0 l/m 0 min 0 min 370 W/m 9,0 km/h (2 Bft) 97,87 %
12.06.2018 13:18 19,2 C 21,1 C 17,8 C 71 % 1011,1 hPa 0,0 l/m 0 min 0 min 351 W/m 6,8 km/h (2 Bft) 100,00 %
12.06.2018 13:20 19,3 C 20,6 C 17,8 C 71 % 1011,0 hPa 0,0 l/m 0 min 0 min 329 W/m 6,8 km/h (2 Bft) 100,00 %
12.06.2018 13:22 19,2 C 20,6 C 17,8 C 71 % 1011,0 hPa 0,0 l/m 0 min 0 min 307 W/m 6,8 km/h (2 Bft) 100,00 %
12.06.2018 13:24 19,3 C 20,0 C 17,8 C 70 % 1011,0 hPa 0,0 l/m 0 min 0 min 288 W/m 9,0 km/h (2 Bft) 100,00 %
12.06.2018 13:26 19,2 C 20,0 C 17,8 C 70 % 1011,0 hPa 0,0 l/m 0 min 0 min 273 W/m 4,5 km/h (1 Bft) 97,87 %
12.06.2018 13:28 19,2 C 20,0 C 17,8 C 70 % 1011,0 hPa 0,0 l/m 0 min 0 min 265 W/m 6,8 km/h (2 Bft) 97,87 %
12.06.2018 13:30 19,2 C 19,4 C 17,8 C 70 % 1011,1 hPa 0,0 l/m 0 min 0 min 260 W/m 9,0 km/h (2 Bft) 97,87 %
12.06.2018 13:32 19,2 C 19,4 C 17,8 C 70 % 1011,1 hPa 0,0 l/m 0 min 0 min 263 W/m 6,8 km/h (2 Bft) 95,74 %
12.06.2018 13:34 19,2 C 19,4 C 17,8 C 70 % 1011,0 hPa 0,0 l/m 0 min 0 min 274 W/m 6,8 km/h (2 Bft) 97,83 %
12.06.2018 13:36 19,2 C 19,4 C 17,8 C 70 % 1011,1 hPa 0,0 l/m 0 min 0 min 295 W/m 4,5 km/h (1 Bft) 95,74 %
12.06.2018 13:38 19,1 C 19,4 C 17,8 C 70 % 1011,0 hPa 0,0 l/m 0 min 0 min 307 W/m 13,5 km/h (3 Bft) 97,87 %
12.06.2018 13:40 19,1 C 19,4 C 17,8 C 70 % 1011,0 hPa 0,0 l/m 0 min 0 min 314 W/m 9,0 km/h (2 Bft) 97,87 %
12.06.2018 13:42 19,1 C 20,0 C 17,8 C 71 % 1011,0 hPa 0,0 l/m 0 min 0 min 307 W/m 4,5 km/h (1 Bft) 97,87 %
12.06.2018 13:44 19,1 C 19,4 C 17,8 C 71 % 1011,1 hPa 0,0 l/m 0 min 0 min 280 W/m 9,0 km/h (2 Bft) 98,00 %
12.06.2018 13:46 19,1 C 19,4 C 17,8 C 71 % 1011,0 hPa 0,0 l/m 0 min 0 min 251 W/m 11,3 km/h (2 Bft) 97,83 %
12.06.2018 13:48 19,1 C 18,9 C 17,8 C 70 % 1011,0 hPa 0,0 l/m 0 min 0 min 229 W/m 9,0 km/h (2 Bft) 97,87 %
12.06.2018 13:50 19,1 C 18,9 C 17,2 C 70 % 1011,0 hPa 0,0 l/m 0 min 0 min 222 W/m 6,8 km/h (2 Bft) 97,87 %
12.06.2018 13:52 19,0 C 18,9 C 17,2 C 70 % 1011,0 hPa 0,0 l/m 0 min 0 min 222 W/m 6,8 km/h (2 Bft) 95,74 %
12.06.2018 13:54 19,0 C 18,9 C 17,2 C 70 % 1011,0 hPa 0,0 l/m 0 min 0 min 226 W/m 4,5 km/h (1 Bft) 97,87 %
12.06.2018 13:56 18,9 C 18,9 C 17,2 C 70 % 1011,0 hPa 0,0 l/m 0 min 0 min 229 W/m 4,5 km/h (1 Bft) 97,87 %
12.06.2018 13:58 18,9 C 18,9 C 17,2 C 70 % 1011,1 hPa 0,0 l/m 0 min 0 min 234 W/m 9,0 km/h (2 Bft) 97,83 %
12.06.2018 14:00 18,8 C 18,9 C 17,2 C 70 % 1011,1 hPa 0,0 l/m 0 min 2 min 245 W/m 6,8 km/h (2 Bft) 97,87 %
12.06.2018 14:02 18,8 C 18,9 C 16,7 C 71 % 1011,0 hPa 0,0 l/m 0 min 2 min 260 W/m 6,8 km/h (2 Bft) 97,87 %
12.06.2018 14:04 18,8 C 18,9 C 16,7 C 72 % 1011,1 hPa 0,0 l/m 0 min 2 min 273 W/m 11,3 km/h (2 Bft) 97,87 %
12.06.2018 14:06 18,7 C 18,3 C 16,1 C 73 % 1011,1 hPa 0,0 l/m 0 min 2 min 281 W/m 11,3 km/h (2 Bft) 93,62 %
12.06.2018 14:08 18,7 C 18,3 C 16,1 C 73 % 1011,0 hPa 0,0 l/m 0 min 2 min 288 W/m 4,5 km/h (1 Bft) 95,74 %
12.06.2018 14:10 18,7 C 17,8 C 16,1 C 75 % 1011,0 hPa 0,0 l/m 0 min 2 min 290 W/m 4,5 km/h (1 Bft) 97,83 %
12.06.2018 14:12 18,7 C 17,2 C 15,6 C 75 % 1011,1 hPa 0,0 l/m 0 min 2 min 292 W/m 11,3 km/h (2 Bft) 97,87 %
12.06.2018 14:14 18,7 C 17,2 C 15,6 C 75 % 1011,1 hPa 0,0 l/m 0 min 2 min 293 W/m 4,5 km/h (1 Bft) 100,00 %
12.06.2018 14:16 18,7 C 17,2 C 16,1 C 76 % 1011,2 hPa 0,0 l/m 0 min 2 min 295 W/m 4,5 km/h (1 Bft) 100,00 %
12.06.2018 14:18 18,6 C 17,2 C 16,1 C 76 % 1011,1 hPa 0,0 l/m 0 min 2 min 288 W/m 6,8 km/h (2 Bft) 97,87 %
12.06.2018 14:20 18,6 C 17,2 C 16,1 C 77 % 1011,1 hPa 0,0 l/m 0 min 2 min 276 W/m 9,0 km/h (2 Bft) 100,00 %
12.06.2018 14:22 18,5 C 17,2 C 16,1 C 77 % 1011,2 hPa 0,0 l/m 0 min 2 min 279 W/m 11,3 km/h (2 Bft) 97,83 %
12.06.2018 14:24 18,4 C 17,2 C 16,1 C 78 % 1011,1 hPa 0,0 l/m 0 min 2 min 293 W/m 9,0 km/h (2 Bft) 100,00 %
12.06.2018 14:26 18,4 C 17,2 C 16,1 C 78 % 1011,1 hPa 0,0 l/m 0 min 2 min 304 W/m 13,5 km/h (3 Bft) 100,00 %
12.06.2018 14:28 18,3 C 17,2 C 16,1 C 78 % 1011,1 hPa 0,0 l/m 0 min 2 min 310 W/m 6,8 km/h (2 Bft) 100,00 %
12.06.2018 14:30 18,2 C 17,2 C 16,1 C 78 % 1011,1 hPa 0,0 l/m 0 min 2 min 315 W/m 9,0 km/h (2 Bft) 97,87 %
12.06.2018 14:32 18,1 C 17,2 C 16,1 C 79 % 1011,1 hPa 0,0 l/m 0 min 2 min 316 W/m 13,5 km/h (3 Bft) 100,00 %
12.06.2018 14:34 18,1 C 17,8 C 16,1 C 79 % 1011,2 hPa 0,0 l/m 0 min 2 min 313 W/m 13,5 km/h (3 Bft) 100,00 %
12.06.2018 14:36 18,1 C 17,8 C 16,1 C 79 % 1011,0 hPa 0,0 l/m 0 min 0 min 311 W/m 13,5 km/h (3 Bft) 100,00 %
12.06.2018 14:38 18,0 C 17,8 C 16,1 C 79 % 1011,0 hPa 0,0 l/m 0 min 0 min 312 W/m 13,5 km/h (3 Bft) 100,00 %
12.06.2018 14:40 17,9 C 17,8 C 16,1 C 79 % 1011,0 hPa 0,0 l/m 0 min 2 min 309 W/m 6,8 km/h (2 Bft) 100,00 %
12.06.2018 14:42 17,9 C 17,2 C 15,6 C 79 % 1011,0 hPa 0,0 l/m 0 min 0 min 304 W/m 9,0 km/h (2 Bft) 100,00 %
12.06.2018 14:44 17,8 C 17,8 C 16,1 C 79 % 1011,0 hPa 0,0 l/m 0 min 0 min 299 W/m 6,8 km/h (2 Bft) 100,00 %
12.06.2018 14:46 17,8 C 17,8 C 16,1 C 79 % 1011,0 hPa 0,0 l/m 0 min 0 min 297 W/m 13,5 km/h (3 Bft) 100,00 %
12.06.2018 14:48 17,8 C 17,8 C 16,1 C 79 % 1011,0 hPa 0,0 l/m 0 min 2 min 303 W/m 11,3 km/h (2 Bft) 100,00 %
12.06.2018 14:50 17,7 C 17,8 C 16,1 C 80 % 1011,1 hPa 0,0 l/m 0 min 0 min 317 W/m 11,3 km/h (2 Bft) 100,00 %
12.06.2018 14:52 17,7 C 18,3 C 16,1 C 80 % 1011,0 hPa 0,0 l/m 0 min 0 min 333 W/m 18,0 km/h (3 Bft) 100,00 %
12.06.2018 14:54 17,7 C 17,8 C 16,1 C 79 % 1011,0 hPa 0,0 l/m 0 min 0 min 319 W/m 11,3 km/h (2 Bft) 97,87 %
12.06.2018 14:56 17,6 C 17,8 C 16,1 C 79 % 1011,1 hPa 0,0 l/m 0 min 2 min 298 W/m 11,3 km/h (2 Bft) 97,83 %
12.06.2018 14:58 17,6 C 17,8 C 16,1 C 79 % 1011,1 hPa 0,0 l/m 0 min 2 min 284 W/m 11,3 km/h (2 Bft) 100,00 %
12.06.2018 15:00 17,6 C 17,2 C 16,1 C 79 % 1011,1 hPa 0,0 l/m 0 min 2 min 263 W/m 13,5 km/h (3 Bft) 100,00 %
12.06.2018 15:02 17,5 C 17,2 C 16,1 C 79 % 1011,1 hPa 0,0 l/m 0 min 0 min 248 W/m 13,5 km/h (3 Bft) 97,87 %
12.06.2018 15:04 17,4 C 17,2 C 16,1 C 79 % 1011,1 hPa 0,0 l/m 0 min 2 min 233 W/m 6,8 km/h (2 Bft) 100,00 %
12.06.2018 15:06 17,4 C 17,2 C 16,1 C 79 % 1011,2 hPa 0,0 l/m 0 min 2 min 220 W/m 13,5 km/h (3 Bft) 97,87 %
12.06.2018 15:08 17,4 C 17,2 C 16,1 C 79 % 1011,1 hPa 0,0 l/m 0 min 2 min 208 W/m 11,3 km/h (2 Bft) 100,00 %
12.06.2018 15:10 17,3 C 17,2 C 16,1 C 79 % 1011,2 hPa 0,0 l/m 0 min 0 min 195 W/m 18,0 km/h (3 Bft) 97,87 %
12.06.2018 15:12 17,3 C 17,2 C 16,1 C 80 % 1011,1 hPa 0,0 l/m 0 min 2 min 188 W/m 15,8 km/h (3 Bft) 97,87 %
12.06.2018 15:14 17,3 C 17,2 C 16,1 C 80 % 1011,1 hPa 0,0 l/m 0 min 0 min 184 W/m 11,3 km/h (2 Bft) 97,87 %
12.06.2018 15:16 17,3 C 17,2 C 16,1 C 80 % 1011,2 hPa 0,0 l/m 0 min 0 min 182 W/m 6,8 km/h (2 Bft) 97,87 %
12.06.2018 15:18 17,2 C 17,2 C 16,1 C 80 % 1011,1 hPa 0,0 l/m 0 min 0 min 176 W/m 11,3 km/h (2 Bft) 97,87 %
12.06.2018 15:20 17,2 C 17,2 C 15,6 C 80 % 1011,2 hPa 0,0 l/m 0 min 0 min 167 W/m 11,3 km/h (2 Bft) 97,83 %
12.06.2018 15:22 17,2 C 16,7 C 15,6 C 80 % 1011,2 hPa 0,0 l/m 0 min 0 min 157 W/m 13,5 km/h (3 Bft) 97,87 %
12.06.2018 15:24 17,2 C 16,7 C 16,1 C 80 % 1011,3 hPa 0,0 l/m 0 min 0 min 150 W/m 9,0 km/h (2 Bft) 97,87 %
12.06.2018 15:26 17,1 C 16,7 C 16,1 C 80 % 1011,2 hPa 0,0 l/m 0 min 0 min 145 W/m 11,3 km/h (2 Bft) 97,87 %
12.06.2018 15:28 17,1 C 16,7 C 16,1 C 80 % 1011,2 hPa 0,0 l/m 0 min 0 min 143 W/m 6,8 km/h (2 Bft) 97,87 %
12.06.2018 15:30 17,1 C 16,7 C 16,1 C 80 % 1011,3 hPa 0,0 l/m 0 min 0 min 140 W/m 9,0 km/h (2 Bft) 97,87 %
12.06.2018 15:32 17,1 C 16,7 C 16,1 C 80 % 1011,3 hPa 0,0 l/m 0 min 0 min 139 W/m 6,8 km/h (2 Bft) 95,65 %
12.06.2018 15:34 17,1 C 16,7 C 16,1 C 80 % 1011,2 hPa 0,0 l/m 0 min 0 min 137 W/m 11,3 km/h (2 Bft) 95,74 %
12.06.2018 15:36 17,1 C 16,7 C 16,1 C 80 % 1011,3 hPa 0,0 l/m 0 min 0 min 135 W/m 4,5 km/h (1 Bft) 94,34 %
12.06.2018 15:38 17,1 C 16,7 C 16,1 C 80 % 1011,3 hPa 0,0 l/m 0 min 0 min 134 W/m 6,8 km/h (2 Bft) 93,62 %
12.06.2018 15:40 17,1 C 16,7 C 16,1 C 81 % 1011,2 hPa 0,0 l/m 0 min 0 min 132 W/m 4,5 km/h (1 Bft) 95,74 %
12.06.2018 15:42 17,0 C 17,2 C 16,1 C 80 % 1011,2 hPa 0,0 l/m 0 min 0 min 128 W/m 2,3 km/h (1 Bft) 95,74 %
12.06.2018 15:44 17,0 C 17,2 C 16,1 C 81 % 1011,2 hPa 0,0 l/m 0 min 0 min 123 W/m 6,8 km/h (2 Bft) 95,65 %
12.06.2018 15:46 17,0 C 17,2 C 16,1 C 81 % 1011,2 hPa 0,0 l/m 0 min 0 min 117 W/m 9,0 km/h (2 Bft) 95,74 %
12.06.2018 15:48 17,0 C 16,7 C 16,1 C 81 % 1011,2 hPa 0,0 l/m 0 min 0 min 110 W/m 2,3 km/h (1 Bft) 95,74 %
12.06.2018 15:50 17,0 C 16,7 C 16,1 C 80 % 1011,2 hPa 0,0 l/m 0 min 0 min 105 W/m 6,8 km/h (2 Bft) 95,74 %
12.06.2018 15:52 17,0 C 16,7 C 16,1 C 80 % 1011,2 hPa 0,0 l/m 0 min 0 min 101 W/m 2,3 km/h (1 Bft) 95,74 %
12.06.2018 15:54 17,0 C 16,7 C 16,1 C 80 % 1011,2 hPa 0,0 l/m 0 min 0 min 98 W/m 4,5 km/h (1 Bft) 95,65 %
12.06.2018 15:56 17,0 C 16,7 C 16,1 C 80 % 1011,2 hPa 0,0 l/m 0 min 0 min 98 W/m 4,5 km/h (1 Bft) 97,87 %
12.06.2018 15:58 16,9 C 16,7 C 16,1 C 80 % 1011,2 hPa 0,0 l/m 0 min 0 min 97 W/m 4,5 km/h (1 Bft) 95,74 %
12.06.2018 16:00 16,9 C 16,7 C 16,1 C 79 % 1011,2 hPa 0,0 l/m 0 min 0 min 93 W/m 4,5 km/h (1 Bft) 95,74 %
12.06.2018 16:02 16,9 C 16,7 C 16,1 C 79 % 1011,2 hPa 0,0 l/m 0 min 2 min 91 W/m 15,8 km/h (3 Bft) 93,62 %
12.06.2018 16:04 16,9 C 16,7 C 15,6 C 79 % 1011,2 hPa 0,0 l/m 0 min 0 min 90 W/m 11,3 km/h (2 Bft) 97,87 %
12.06.2018 16:06 16,9 C 16,1 C 15,6 C 79 % 1011,2 hPa 0,0 l/m 0 min 2 min 90 W/m 6,8 km/h (2 Bft) 97,83 %
12.06.2018 16:08 16,9 C 16,1 C 15,6 C 79 % 1011,2 hPa 0,0 l/m 0 min 2 min 91 W/m 4,5 km/h (1 Bft) 97,87 %
12.06.2018 16:10 16,9 C 16,1 C 15,6 C 80 % 1011,1 hPa 0,0 l/m 0 min 2 min 93 W/m 9,0 km/h (2 Bft) 97,87 %
12.06.2018 16:12 16,8 C 15,6 C 15,0 C 80 % 1011,2 hPa 0,0 l/m 0 min 2 min 95 W/m 9,0 km/h (2 Bft) 97,87 %
12.06.2018 16:14 16,8 C 15,6 C 15,0 C 80 % 1011,2 hPa 0,0 l/m 0 min 2 min 98 W/m 6,8 km/h (2 Bft) 95,74 %
12.06.2018 16:16 16,8 C 15,6 C 15,0 C 81 % 1011,2 hPa 0,0 l/m 0 min 2 min 99 W/m 6,8 km/h (2 Bft) 93,62 %
12.06.2018 16:18 16,8 C 15,6 C 15,0 C 81 % 1011,1 hPa 0,0 l/m 0 min 2 min 100 W/m 9,0 km/h (2 Bft) 95,65 %
12.06.2018 16:20 16,7 C 15,0 C 14,4 C 81 % 1011,1 hPa 0,0 l/m 0 min 2 min 100 W/m 9,0 km/h (2 Bft) 97,87 %
12.06.2018 16:22 16,7 C 14,4 C 14,4 C 81 % 1011,2 hPa 0,0 l/m 0 min 2 min 101 W/m 9,0 km/h (2 Bft) 95,74 %
12.06.2018 16:24 16,7 C 14,4 C 13,9 C 82 % 1011,1 hPa 0,0 l/m 0 min 2 min 104 W/m 6,8 km/h (2 Bft) 97,37 %
12.06.2018 16:26 16,7 C 14,4 C 13,9 C 82 % 1011,1 hPa 0,2 l/m 0 min 2 min 107 W/m 2,3 km/h (1 Bft) 97,87 %
12.06.2018 16:28 16,7 C 14,4 C 13,3 C 83 % 1011,1 hPa 0,0 l/m 0 min 2 min 113 W/m 4,5 km/h (1 Bft) 93,62 %
12.06.2018 16:30 16,6 C 13,9 C 13,3 C 84 % 1011,1 hPa 0,0 l/m 0 min 2 min 121 W/m 9,0 km/h (2 Bft) 95,74 %
12.06.2018 16:32 16,6 C 13,9 C 13,3 C 84 % 1011,1 hPa 0,2 l/m 0 min 2 min 131 W/m 9,0 km/h (2 Bft) 95,65 %
12.06.2018 16:34 16,5 C 13,9 C 13,3 C 85 % 1011,2 hPa 0,0 l/m 0 min 2 min 148 W/m 4,5 km/h (1 Bft) 97,87 %
12.06.2018 16:36 16,4 C 13,9 C 13,3 C 85 % 1011,2 hPa 0,0 l/m 0 min 2 min 171 W/m 6,8 km/h (2 Bft) 95,74 %
12.06.2018 16:38 16,4 C 14,4 C 13,9 C 85 % 1011,2 hPa 0,2 l/m 0 min 2 min 202 W/m 6,8 km/h (2 Bft) 97,87 %
12.06.2018 16:40 16,4 C 14,4 C 13,3 C 86 % 1011,2 hPa 0,0 l/m 0 min 2 min 240 W/m 2,3 km/h (1 Bft) 95,74 %
12.06.2018 16:42 16,4 C 14,4 C 13,9 C 86 % 1011,2 hPa 0,0 l/m 0 min 2 min 288 W/m 2,3 km/h (1 Bft) 97,87 %
12.06.2018 16:44 16,4 C 15,0 C 13,9 C 86 % 1011,2 hPa 0,0 l/m 0 min 2 min 321 W/m 4,5 km/h (1 Bft) 97,83 %
12.06.2018 16:46 16,4 C 15,6 C 13,9 C 87 % 1011,2 hPa 0,0 l/m 0 min 2 min 333 W/m 2,3 km/h (1 Bft) 95,74 %
12.06.2018 16:48 16,4 C 15,6 C 13,9 C 87 % 1011,2 hPa 0,0 l/m 2 min 2 min 338 W/m 4,5 km/h (1 Bft) 97,87 %
12.06.2018 16:50 16,4 C 15,6 C 13,9 C 88 % 1011,2 hPa 0,0 l/m 2 min 2 min 334 W/m 4,5 km/h (1 Bft) 97,87 %
12.06.2018 16:52 16,4 C 15,6 C 14,4 C 88 % 1011,1 hPa 0,2 l/m 0 min 2 min 319 W/m 6,8 km/h (2 Bft) 95,74 %
12.06.2018 16:54 16,4 C 15,6 C 14,4 C 88 % 1011,2 hPa 0,0 l/m 0 min 0 min 302 W/m 2,3 km/h (1 Bft) 95,74 %
12.06.2018 16:56 16,5 C 15,6 C 13,9 C 88 % 1011,2 hPa 0,0 l/m 0 min 0 min 278 W/m 4,5 km/h (1 Bft) 97,83 %
12.06.2018 16:58 16,5 C 15,6 C 14,4 C 89 % 1011,2 hPa 0,0 l/m 0 min 0 min 261 W/m 2,3 km/h (1 Bft) 97,87 %
12.06.2018 17:00 16,5 C 15,6 C 14,4 C 89 % 1011,2 hPa 0,0 l/m 0 min 0 min 256 W/m 6,8 km/h (2 Bft) 97,87 %
12.06.2018 17:03 16,5 C 15,0 C 14,4 C 89 % 1011,1 hPa 0,0 l/m 0 min 0 min 276 W/m 6,8 km/h (2 Bft) 95,12 %
12.06.2018 17:04 16,5 C 15,6 C 14,4 C 88 % 1011,1 hPa 0,0 l/m 1 min 0 min 317 W/m 4,5 km/h (1 Bft) 91,67 %
12.06.2018 17:06 16,5 C 16,1 C 14,4 C 88 % 1011,1 hPa 0,0 l/m 2 min 0 min 354 W/m 4,5 km/h (1 Bft) 100,00 %
12.06.2018 17:10 16,6 C 17,8 C 15,0 C 89 % 1011,1 hPa 0,0 l/m 4 min 0 min 694 W/m 2,3 km/h (1 Bft) 100,00 %
12.06.2018 17:12 16,7 C 17,8 C 15,0 C 89 % 1011,0 hPa 0,0 l/m 2 min 0 min 602 W/m 6,8 km/h (2 Bft) 97,87 %
12.06.2018 17:14 16,7 C 17,2 C 15,0 C 89 % 1011,1 hPa 0,0 l/m 2 min 0 min 435 W/m 9,0 km/h (2 Bft) 100,00 %
12.06.2018 17:16 16,8 C 16,7 C 15,0 C 88 % 1011,1 hPa 0,0 l/m 2 min 0 min 359 W/m 6,8 km/h (2 Bft) 100,00 %
12.06.2018 17:18 16,8 C 16,1 C 15,0 C 88 % 1011,1 hPa 0,0 l/m 0 min 0 min 288 W/m 6,8 km/h (2 Bft) 100,00 %
12.06.2018 17:20 16,9 C 16,1 C 15,0 C 88 % 1011,0 hPa 0,0 l/m 0 min 0 min 248 W/m 4,5 km/h (1 Bft) 97,83 %
12.06.2018 17:22 16,9 C 15,6 C 15,0 C 87 % 1011,0 hPa 0,0 l/m 0 min 0 min 228 W/m 9,0 km/h (2 Bft) 100,00 %
12.06.2018 17:24 16,9 C 15,6 C 15,0 C 86 % 1010,9 hPa 0,0 l/m 0 min 0 min 228 W/m 2,3 km/h (1 Bft) 100,00 %
12.06.2018 17:26 16,9 C 16,1 C 15,0 C 86 % 1010,9 hPa 0,0 l/m 0 min 0 min 232 W/m 6,8 km/h (2 Bft) 100,00 %
12.06.2018 17:28 16,9 C 16,1 C 15,0 C 85 % 1010,9 hPa 0,0 l/m 0 min 0 min 259 W/m 6,8 km/h (2 Bft) 100,00 %
12.06.2018 17:30 17,0 C 16,7 C 15,0 C 85 % 1011,0 hPa 0,0 l/m 2 min 0 min 456 W/m 4,5 km/h (1 Bft) 100,00 %
12.06.2018 17:32 17,1 C 16,7 C 15,0 C 85 % 1010,9 hPa 0,0 l/m 2 min 0 min 290 W/m 6,8 km/h (2 Bft) 100,00 %
12.06.2018 17:34 17,1 C 16,7 C 15,0 C 84 % 1010,9 hPa 0,0 l/m 0 min 0 min 245 W/m 4,5 km/h (1 Bft) 100,00 %
12.06.2018 17:36 17,2 C 16,7 C 15,0 C 84 % 1011,0 hPa 0,0 l/m 0 min 0 min 248 W/m 9,0 km/h (2 Bft) 100,00 %
12.06.2018 17:38 17,2 C 16,7 C 15,6 C 84 % 1011,0 hPa 0,0 l/m 2 min 0 min 330 W/m 4,5 km/h (1 Bft) 100,00 %
12.06.2018 17:40 17,2 C 17,2 C 15,6 C 83 % 1011,0 hPa 0,0 l/m 2 min 0 min 371 W/m 4,5 km/h (1 Bft) 100,00 %
12.06.2018 17:42 17,3 C 17,2 C 15,6 C 83 % 1011,0 hPa 0,0 l/m 2 min 0 min 328 W/m 9,0 km/h (2 Bft) 97,87 %
12.06.2018 17:44 17,3 C 16,7 C 15,6 C 82 % 1011,0 hPa 0,0 l/m 2 min 0 min 279 W/m 9,0 km/h (2 Bft) 97,87 %
12.06.2018 17:46 17,4 C 17,2 C 15,6 C 82 % 1011,0 hPa 0,0 l/m 2 min 0 min 289 W/m 2,3 km/h (1 Bft) 100,00 %
12.06.2018 17:48 17,4 C 17,2 C 15,6 C 82 % 1011,0 hPa 0,0 l/m 0 min 0 min 238 W/m 6,8 km/h (2 Bft) 100,00 %
12.06.2018 17:50 17,4 C 17,2 C 15,6 C 81 % 1010,9 hPa 0,0 l/m 0 min 0 min 221 W/m 6,8 km/h (2 Bft) 100,00 %
12.06.2018 17:52 17,5 C 16,7 C 15,6 C 81 % 1010,9 hPa 0,0 l/m 0 min 0 min 227 W/m 6,8 km/h (2 Bft) 95,74 %
12.06.2018 17:54 17,5 C 16,7 C 15,6 C 81 % 1010,9 hPa 0,0 l/m 0 min 0 min 220 W/m 6,8 km/h (2 Bft) 97,87 %
12.06.2018 17:56 17,6 C 17,2 C 15,6 C 80 % 1010,9 hPa 0,0 l/m 0 min 0 min 220 W/m 4,5 km/h (1 Bft) 97,87 %
12.06.2018 17:58 17,6 C 17,2 C 15,6 C 80 % 1010,9 hPa 0,0 l/m 0 min 0 min 222 W/m 6,8 km/h (2 Bft) 97,87 %
12.06.2018 18:00 17,6 C 17,2 C 15,6 C 80 % 1010,9 hPa 0,0 l/m 0 min 0 min 250 W/m 11,3 km/h (2 Bft) 97,87 %
12.06.2018 18:02 17,6 C 17,2 C 15,6 C 79 % 1010,9 hPa 0,0 l/m 2 min 0 min 276 W/m 6,8 km/h (2 Bft) 97,83 %
12.06.2018 18:04 17,6 C 17,8 C 15,6 C 79 % 1010,9 hPa 0,0 l/m 2 min 0 min 282 W/m 9,0 km/h (2 Bft) 97,87 %
12.06.2018 18:08 17,7 C 17,8 C 16,1 C 78 % 1010,8 hPa 0,0 l/m 0 min 0 min 239 W/m 6,8 km/h (2 Bft) 97,87 %
12.06.2018 18:10 17,7 C 17,8 C 16,1 C 78 % 1010,8 hPa 0,0 l/m 2 min 0 min 264 W/m 6,8 km/h (2 Bft) 97,87 %
12.06.2018 18:12 17,7 C 18,3 C 16,1 C 78 % 1010,8 hPa 0,0 l/m 2 min 0 min 378 W/m 6,8 km/h (2 Bft) 97,87 %
12.06.2018 18:14 17,8 C 18,9 C 16,1 C 78 % 1010,9 hPa 0,0 l/m 2 min 0 min 453 W/m 11,3 km/h (2 Bft) 97,83 %
12.06.2018 18:16 17,8 C 18,9 C 16,1 C 78 % 1010,9 hPa 0,0 l/m 2 min 0 min 357 W/m 4,5 km/h (1 Bft) 97,87 %
12.06.2018 18:18 17,8 C 18,9 C 16,1 C 78 % 1010,9 hPa 0,0 l/m 2 min 0 min 239 W/m 4,5 km/h (1 Bft) 97,87 %
12.06.2018 18:20 17,9 C 18,9 C 16,1 C 78 % 1010,8 hPa 0,0 l/m 0 min 0 min 172 W/m 6,8 km/h (2 Bft) 97,87 %
12.06.2018 18:22 17,9 C 18,9 C 16,1 C 78 % 1010,9 hPa 0,0 l/m 0 min 0 min 135 W/m 9,0 km/h (2 Bft) 95,74 %
12.06.2018 18:24 17,9 C 18,3 C 16,1 C 78 % 1010,8 hPa 0,0 l/m 0 min 0 min 107 W/m 11,3 km/h (2 Bft) 97,87 %
12.06.2018 18:26 18,0 C 17,8 C 16,1 C 77 % 1010,8 hPa 0,0 l/m 0 min 0 min 90 W/m 4,5 km/h (1 Bft) 97,83 %
12.06.2018 18:28 18,0 C 17,8 C 16,1 C 77 % 1010,8 hPa 0,0 l/m 0 min 0 min 87 W/m 4,5 km/h (1 Bft) 97,87 %
12.06.2018 18:30 18,0 C 17,8 C 16,1 C 77 % 1010,8 hPa 0,0 l/m 0 min 0 min 90 W/m 4,5 km/h (1 Bft) 95,74 %
12.06.2018 18:32 18,0 C 17,8 C 16,1 C 77 % 1010,8 hPa 0,0 l/m 0 min 0 min 89 W/m 4,5 km/h (1 Bft) 97,87 %
12.06.2018 18:34 18,0 C 17,8 C 16,1 C 77 % 1010,9 hPa 0,0 l/m 0 min 0 min 95 W/m 11,3 km/h (2 Bft) 100,00 %
12.06.2018 18:36 18,0 C 17,8 C 16,1 C 76 % 1010,8 hPa 0,0 l/m 0 min 0 min 102 W/m 9,0 km/h (2 Bft) 97,87 %
12.06.2018 18:38 17,9 C 17,8 C 16,1 C 76 % 1010,8 hPa 0,0 l/m 0 min 0 min 106 W/m 4,5 km/h (1 Bft) 97,83 %
12.06.2018 18:40 18,0 C 17,8 C 16,1 C 76 % 1010,8 hPa 0,0 l/m 0 min 0 min 105 W/m 4,5 km/h (1 Bft) 95,74 %
12.06.2018 18:42 17,9 C 17,8 C 16,1 C 77 % 1010,9 hPa 0,0 l/m 0 min 0 min 96 W/m 6,8 km/h (2 Bft) 97,87 %
12.06.2018 18:44 17,9 C 17,8 C 16,7 C 76 % 1010,9 hPa 0,0 l/m 0 min 0 min 91 W/m 6,8 km/h (2 Bft) 97,87 %
12.06.2018 18:46 17,9 C 17,8 C 16,7 C 76 % 1010,9 hPa 0,0 l/m 0 min 0 min 89 W/m 6,8 km/h (2 Bft) 100,00 %
12.06.2018 18:48 17,9 C 17,8 C 16,7 C 76 % 1010,8 hPa 0,0 l/m 0 min 0 min 88 W/m 6,8 km/h (2 Bft) 97,87 %
12.06.2018 18:50 17,9 C 17,8 C 16,7 C 77 % 1010,9 hPa 0,0 l/m 0 min 0 min 90 W/m 6,8 km/h (2 Bft) 97,83 %
12.06.2018 18:52 17,9 C 17,2 C 16,1 C 76 % 1010,9 hPa 0,0 l/m 0 min 0 min 100 W/m 13,5 km/h (3 Bft) 97,87 %
12.06.2018 18:54 17,8 C 17,2 C 16,7 C 76 % 1010,8 hPa 0,0 l/m 0 min 0 min 112 W/m 13,5 km/h (3 Bft) 97,87 %
12.06.2018 18:56 17,8 C 17,2 C 16,7 C 77 % 1010,8 hPa 0,0 l/m 0 min 0 min 111 W/m 6,8 km/h (2 Bft) 97,87 %
12.06.2018 18:58 17,8 C 17,2 C 16,1 C 77 % 1010,8 hPa 0,0 l/m 0 min 0 min 100 W/m 11,3 km/h (2 Bft) 97,87 %
12.06.2018 19:00 17,8 C 17,2 C 16,1 C 77 % 1010,9 hPa 0,0 l/m 0 min 0 min 95 W/m 11,3 km/h (2 Bft) 95,65 %
12.06.2018 19:02 17,7 C 17,2 C 16,1 C 77 % 1010,9 hPa 0,0 l/m 0 min 0 min 92 W/m 6,8 km/h (2 Bft) 91,67 %
12.06.2018 19:04 17,7 C 17,2 C 16,1 C 77 % 1010,8 hPa 0,0 l/m 0 min 0 min 92 W/m 15,8 km/h (3 Bft) 95,65 %
12.06.2018 19:06 17,7 C 17,2 C 16,1 C 77 % 1010,9 hPa 0,0 l/m 0 min 0 min 104 W/m 6,8 km/h (2 Bft) 95,74 %
12.06.2018 19:08 17,7 C 17,2 C 16,1 C 77 % 1010,8 hPa 0,0 l/m 0 min 0 min 121 W/m 11,3 km/h (2 Bft) 93,62 %
12.06.2018 19:10 17,7 C 17,2 C 16,1 C 77 % 1010,8 hPa 0,0 l/m 0 min 0 min 124 W/m 6,8 km/h (2 Bft) 95,74 %
12.06.2018 19:12 17,7 C 17,8 C 16,1 C 77 % 1010,8 hPa 0,0 l/m 0 min 0 min 114 W/m 2,3 km/h (1 Bft) 95,74 %
12.06.2018 19:14 17,7 C 17,8 C 16,1 C 77 % 1010,8 hPa 0,0 l/m 0 min 0 min 116 W/m 6,8 km/h (2 Bft) 98,00 %
12.06.2018 19:16 17,7 C 17,8 C 16,1 C 78 % 1010,8 hPa 0,0 l/m 0 min 0 min 120 W/m 9,0 km/h (2 Bft) 93,62 %
12.06.2018 19:18 17,7 C 17,8 C 16,7 C 78 % 1010,8 hPa 0,0 l/m 0 min 0 min 92 W/m 6,8 km/h (2 Bft) 93,62 %
12.06.2018 19:20 17,7 C 17,8 C 16,7 C 78 % 1010,8 hPa 0,0 l/m 0 min 0 min 81 W/m 2,3 km/h (1 Bft) 93,10 %
12.06.2018 19:22 17,7 C 17,2 C 16,7 C 78 % 1010,8 hPa 0,0 l/m 0 min 0 min 87 W/m 9,0 km/h (2 Bft) 95,74 %
12.06.2018 19:24 17,7 C 17,2 C 16,1 C 77 % 1010,8 hPa 0,0 l/m 0 min 0 min 101 W/m 13,5 km/h (3 Bft) 97,14 %
12.06.2018 19:26 17,7 C 17,2 C 16,1 C 77 % 1010,8 hPa 0,0 l/m 0 min 0 min 125 W/m 13,5 km/h (3 Bft) 95,74 %
12.06.2018 19:28 17,6 C 17,2 C 16,1 C 77 % 1010,8 hPa 0,0 l/m 0 min 0 min 137 W/m 13,5 km/h (3 Bft) 93,62 %
12.06.2018 19:30 17,6 C 17,2 C 16,1 C 77 % 1010,9 hPa 0,0 l/m 0 min 0 min 135 W/m 13,5 km/h (3 Bft) 95,74 %
12.06.2018 19:32 17,6 C 17,2 C 16,1 C 77 % 1010,9 hPa 0,0 l/m 0 min 0 min 122 W/m 11,3 km/h (2 Bft) 95,74 %
12.06.2018 19:34 17,6 C 17,2 C 16,1 C 76 % 1010,9 hPa 0,0 l/m 0 min 0 min 100 W/m 11,3 km/h (2 Bft) 95,74 %
12.06.2018 19:36 17,6 C 17,2 C 16,1 C 76 % 1010,9 hPa 0,0 l/m 0 min 0 min 85 W/m 18,0 km/h (3 Bft) 95,65 %
12.06.2018 19:38 17,6 C 17,2 C 16,1 C 76 % 1010,9 hPa 0,0 l/m 0 min 0 min 71 W/m 13,5 km/h (3 Bft) 95,74 %
12.06.2018 19:40 17,6 C 17,2 C 16,1 C 76 % 1010,9 hPa 0,0 l/m 0 min 0 min 61 W/m 4,5 km/h (1 Bft) 93,62 %
12.06.2018 19:42 17,5 C 17,2 C 16,1 C 76 % 1010,9 hPa 0,0 l/m 0 min 0 min 51 W/m 9,0 km/h (2 Bft) 95,74 %
12.06.2018 19:44 17,5 C 17,2 C 16,1 C 76 % 1011,0 hPa 0,0 l/m 0 min 0 min 49 W/m 6,8 km/h (2 Bft) 95,74 %
12.06.2018 19:46 17,5 C 16,7 C 16,1 C 76 % 1010,9 hPa 0,0 l/m 0 min 0 min 51 W/m 15,8 km/h (3 Bft) 95,65 %
12.06.2018 19:48 17,4 C 16,7 C 16,1 C 76 % 1010,9 hPa 0,0 l/m 0 min 0 min 52 W/m 15,8 km/h (3 Bft) 97,87 %
12.06.2018 19:50 17,4 C 16,7 C 16,1 C 76 % 1010,9 hPa 0,0 l/m 0 min 0 min 54 W/m 11,3 km/h (2 Bft) 100,00 %
12.06.2018 19:52 17,4 C 16,7 C 16,1 C 77 % 1010,9 hPa 0,0 l/m 0 min 0 min 56 W/m 6,8 km/h (2 Bft) 100,00 %
12.06.2018 19:54 17,4 C 16,7 C 16,1 C 77 % 1011,0 hPa 0,0 l/m 0 min 0 min 53 W/m 9,0 km/h (2 Bft) 97,87 %
12.06.2018 19:56 17,3 C 16,7 C 16,1 C 77 % 1011,0 hPa 0,0 l/m 0 min 0 min 51 W/m 11,3 km/h (2 Bft) 97,87 %
12.06.2018 19:58 17,3 C 16,7 C 16,1 C 77 % 1010,9 hPa 0,0 l/m 0 min 0 min 54 W/m 11,3 km/h (2 Bft) 97,87 %
12.06.2018 20:00 17,3 C 16,7 C 15,6 C 77 % 1010,9 hPa 0,0 l/m 0 min 0 min 54 W/m 11,3 km/h (2 Bft) 100,00 %
12.06.2018 20:02 17,3 C 16,7 C 15,6 C 77 % 1011,0 hPa 0,0 l/m 0 min 0 min 48 W/m 15,8 km/h (3 Bft) 97,87 %
12.06.2018 20:04 17,2 C 16,7 C 16,1 C 77 % 1011,0 hPa 0,0 l/m 0 min 0 min 42 W/m 9,0 km/h (2 Bft) 100,00 %
12.06.2018 20:06 17,2 C 16,7 C 15,6 C 77 % 1011,0 hPa 0,0 l/m 0 min 0 min 38 W/m 4,5 km/h (1 Bft) 97,87 %
12.06.2018 20:08 17,2 C 16,7 C 15,6 C 77 % 1011,0 hPa 0,0 l/m 0 min 0 min 34 W/m 9,0 km/h (2 Bft) 100,00 %
12.06.2018 20:10 17,2 C 16,7 C 15,6 C 77 % 1011,0 hPa 0,0 l/m 0 min 0 min 33 W/m 9,0 km/h (2 Bft) 100,00 %
12.06.2018 20:12 17,2 C 16,7 C 15,6 C 77 % 1011,0 hPa 0,0 l/m 0 min 0 min 30 W/m 9,0 km/h (2 Bft) 100,00 %
12.06.2018 20:14 17,1 C 16,7 C 15,6 C 77 % 1010,9 hPa 0,0 l/m 0 min 0 min 26 W/m 9,0 km/h (2 Bft) 97,87 %
12.06.2018 20:16 17,1 C 16,7 C 15,6 C 77 % 1011,0 hPa 0,0 l/m 0 min 0 min 28 W/m 6,8 km/h (2 Bft) 100,00 %
12.06.2018 20:18 17,1 C 16,7 C 15,6 C 77 % 1010,9 hPa 0,0 l/m 0 min 0 min 31 W/m 9,0 km/h (2 Bft) 100,00 %
12.06.2018 20:20 17,1 C 16,1 C 15,6 C 77 % 1011,0 hPa 0,0 l/m 0 min 0 min 33 W/m 6,8 km/h (2 Bft) 100,00 %
12.06.2018 20:22 17,0 C 16,1 C 15,6 C 78 % 1010,9 hPa 0,0 l/m 0 min 0 min 34 W/m 18,0 km/h (3 Bft) 97,87 %
12.06.2018 20:24 17,0 C 16,1 C 15,6 C 77 % 1011,0 hPa 0,0 l/m 0 min 0 min 34 W/m 11,3 km/h (2 Bft) 100,00 %
12.06.2018 20:26 16,9 C 16,1 C 15,6 C 78 % 1011,0 hPa 0,0 l/m 0 min 0 min 32 W/m 13,5 km/h (3 Bft) 100,00 %
12.06.2018 20:28 16,9 C 16,1 C 15,6 C 77 % 1011,0 hPa 0,0 l/m 0 min 0 min 28 W/m 11,3 km/h (2 Bft) 97,87 %
12.06.2018 20:30 16,9 C 16,1 C 15,6 C 78 % 1011,0 hPa 0,0 l/m 0 min 0 min 26 W/m 11,3 km/h (2 Bft) 97,87 %
12.06.2018 20:32 16,9 C 16,1 C 15,6 C 78 % 1011,0 hPa 0,0 l/m 0 min 0 min 26 W/m 9,0 km/h (2 Bft) 100,00 %
12.06.2018 20:34 16,9 C 16,1 C 15,6 C 78 % 1011,0 hPa 0,0 l/m 0 min 0 min 27 W/m 9,0 km/h (2 Bft) 100,00 %
12.06.2018 20:36 16,9 C 16,1 C 15,6 C 78 % 1011,1 hPa 0,0 l/m 0 min 0 min 26 W/m 9,0 km/h (2 Bft) 100,00 %
12.06.2018 20:38 16,8 C 16,1 C 15,6 C 79 % 1011,2 hPa 0,0 l/m 0 min 0 min 26 W/m 6,8 km/h (2 Bft) 97,87 %
12.06.2018 20:40 16,8 C 16,1 C 15,6 C 79 % 1011,1 hPa 0,0 l/m 0 min 0 min 23 W/m 11,3 km/h (2 Bft) 97,87 %
12.06.2018 20:42 16,8 C 16,1 C 15,6 C 79 % 1011,1 hPa 0,0 l/m 0 min 0 min 22 W/m 6,8 km/h (2 Bft) 95,74 %
12.06.2018 20:44 16,8 C 16,1 C 15,6 C 79 % 1011,1 hPa 0,0 l/m 0 min 0 min 26 W/m 13,5 km/h (3 Bft) 97,87 %
12.06.2018 20:46 16,8 C 16,1 C 15,6 C 79 % 1011,1 hPa 0,0 l/m 0 min 0 min 29 W/m 6,8 km/h (2 Bft) 95,65 %
12.06.2018 20:48 16,7 C 16,1 C 15,6 C 79 % 1011,1 hPa 0,0 l/m 0 min 0 min 30 W/m 6,8 km/h (2 Bft) 97,87 %
12.06.2018 20:50 16,7 C 16,1 C 15,6 C 79 % 1011,1 hPa 0,0 l/m 0 min 0 min 31 W/m 11,3 km/h (2 Bft) 97,87 %
12.06.2018 20:52 16,7 C 16,1 C 15,6 C 79 % 1011,1 hPa 0,0 l/m 0 min 0 min 34 W/m 11,3 km/h (2 Bft) 97,87 %
12.06.2018 20:54 16,7 C 16,1 C 15,6 C 79 % 1011,1 hPa 0,0 l/m 0 min 0 min 33 W/m 13,5 km/h (3 Bft) 97,87 %
12.06.2018 20:56 16,7 C 16,1 C 15,6 C 79 % 1011,2 hPa 0,0 l/m 0 min 0 min 30 W/m 11,3 km/h (2 Bft) 97,87 %
12.06.2018 20:58 16,7 C 16,1 C 15,6 C 79 % 1011,1 hPa 0,0 l/m 0 min 0 min 27 W/m 13,5 km/h (3 Bft) 97,83 %
12.06.2018 21:00 16,6 C 16,1 C 15,6 C 79 % 1011,2 hPa 0,0 l/m 0 min 0 min 28 W/m 11,3 km/h (2 Bft) 97,87 %
12.06.2018 21:02 16,6 C 16,1 C 15,6 C 79 % 1011,2 hPa 0,0 l/m 0 min 0 min 31 W/m 9,0 km/h (2 Bft) 98,11 %
12.06.2018 21:04 16,6 C 16,1 C 15,6 C 79 % 1011,3 hPa 0,0 l/m 0 min 0 min 35 W/m 9,0 km/h (2 Bft) 97,87 %
12.06.2018 21:06 16,6 C 16,1 C 15,6 C 79 % 1011,3 hPa 0,0 l/m 0 min 0 min 38 W/m 9,0 km/h (2 Bft) 95,83 %
12.06.2018 21:08 16,6 C 16,1 C 15,6 C 79 % 1011,3 hPa 0,0 l/m 2 min 0 min 39 W/m 11,3 km/h (2 Bft) 97,83 %
12.06.2018 21:10 16,6 C 16,1 C 15,6 C 79 % 1011,5 hPa 0,0 l/m 2 min 0 min 37 W/m 15,8 km/h (3 Bft) 95,74 %
12.06.2018 21:12 16,6 C 16,1 C 15,6 C 80 % 1011,4 hPa 0,0 l/m 2 min 0 min 34 W/m 15,8 km/h (3 Bft) 95,74 %
12.06.2018 21:14 16,5 C 16,1 C 15,0 C 79 % 1011,4 hPa 0,0 l/m 0 min 0 min 30 W/m 13,5 km/h (3 Bft) 97,87 %
12.06.2018 21:16 16,5 C 16,1 C 15,0 C 79 % 1011,5 hPa 0,0 l/m 0 min 0 min 26 W/m 20,3 km/h (4 Bft) 97,87 %
12.06.2018 21:18 16,4 C 15,6 C 15,0 C 79 % 1011,4 hPa 0,0 l/m 0 min 0 min 22 W/m 15,8 km/h (3 Bft) 97,87 %
12.06.2018 21:20 16,4 C 15,6 C 15,0 C 79 % 1011,4 hPa 0,0 l/m 0 min 0 min 19 W/m 9,0 km/h (2 Bft) 97,83 %
12.06.2018 21:22 16,4 C 15,6 C 15,0 C 80 % 1011,5 hPa 0,0 l/m 0 min 0 min 18 W/m 9,0 km/h (2 Bft) 97,87 %
12.06.2018 21:24 16,4 C 15,6 C 15,0 C 80 % 1011,6 hPa 0,0 l/m 0 min 0 min 18 W/m 11,3 km/h (2 Bft) 97,87 %
12.06.2018 21:26 16,4 C 15,6 C 15,0 C 80 % 1011,5 hPa 0,0 l/m 0 min 0 min 16 W/m 24,8 km/h (4 Bft) 97,87 %
12.06.2018 21:28 16,3 C 15,6 C 15,0 C 80 % 1011,6 hPa 0,0 l/m 0 min 0 min 12 W/m 24,8 km/h (4 Bft) 100,00 %
12.06.2018 21:30 16,3 C 15,6 C 15,0 C 80 % 1011,6 hPa 0,0 l/m 0 min 0 min 10 W/m 11,3 km/h (2 Bft) 100,00 %
12.06.2018 21:32 16,3 C 15,6 C 15,0 C 80 % 1011,6 hPa 0,0 l/m 0 min 0 min 8 W/m 11,3 km/h (2 Bft) 100,00 %
12.06.2018 21:34 16,2 C 15,6 C 15,0 C 81 % 1011,6 hPa 0,0 l/m 0 min 0 min 6 W/m 11,3 km/h (2 Bft) 100,00 %
12.06.2018 21:36 16,2 C 15,6 C 15,0 C 81 % 1011,6 hPa 0,0 l/m 0 min 0 min 5 W/m 13,5 km/h (3 Bft) 100,00 %
12.06.2018 21:38 16,2 C 15,6 C 15,0 C 81 % 1011,8 hPa 0,0 l/m 0 min 0 min 2 W/m 15,8 km/h (3 Bft) 97,87 %
12.06.2018 21:40 16,2 C 15,0 C 15,0 C 81 % 1011,6 hPa 0,0 l/m 0 min 0 min 0 W/m 13,5 km/h (3 Bft) 100,00 %
12.06.2018 21:42 16,1 C 15,0 C 15,0 C 81 % 1011,7 hPa 0,0 l/m 0 min 0 min 0 W/m 11,3 km/h (2 Bft) 100,00 %
12.06.2018 21:44 16,1 C 15,0 C 15,0 C 82 % 1011,8 hPa 0,0 l/m 0 min 0 min 0 W/m 11,3 km/h (2 Bft) 100,00 %
12.06.2018 21:46 16,1 C 15,0 C 15,0 C 82 % 1011,8 hPa 0,0 l/m 0 min 0 min 0 W/m 13,5 km/h (3 Bft) 100,00 %
12.06.2018 21:48 16,1 C 15,0 C 14,4 C 82 % 1011,8 hPa 0,0 l/m 0 min 0 min 0 W/m 11,3 km/h (2 Bft) 100,00 %
12.06.2018 21:50 16,0 C 15,0 C 15,0 C 82 % 1011,8 hPa 0,0 l/m 0 min 0 min 0 W/m 9,0 km/h (2 Bft) 100,00 %
12.06.2018 21:52 15,9 C 15,0 C 14,4 C 82 % 1011,9 hPa 0,0 l/m 0 min 0 min 0 W/m 11,3 km/h (2 Bft) 100,00 %
12.06.2018 21:54 15,9 C 15,0 C 14,4 C 82 % 1012,0 hPa 0,0 l/m 0 min 0 min 0 W/m 6,8 km/h (2 Bft) 97,83 %
12.06.2018 21:56 15,9 C 15,0 C 14,4 C 83 % 1012,0 hPa 0,0 l/m 0 min 0 min 0 W/m 13,5 km/h (3 Bft) 93,62 %
12.06.2018 21:58 15,9 C 15,0 C 14,4 C 83 % 1012,1 hPa 0,0 l/m 0 min 0 min 0 W/m 11,3 km/h (2 Bft) 100,00 %
12.06.2018 22:00 15,8 C 15,0 C 14,4 C 83 % 1012,0 hPa 0,0 l/m 0 min 0 min 0 W/m 6,8 km/h (2 Bft) 97,87 %
12.06.2018 22:02 15,8 C 15,0 C 14,4 C 83 % 1012,1 hPa 0,0 l/m 0 min 0 min 0 W/m 6,8 km/h (2 Bft) 95,83 %
12.06.2018 22:04 15,8 C 15,0 C 14,4 C 83 % 1012,2 hPa 0,0 l/m 0 min 0 min 0 W/m 4,5 km/h (1 Bft) 97,87 %
12.06.2018 22:06 15,8 C 15,0 C 14,4 C 83 % 1012,2 hPa 0,0 l/m 0 min 0 min 0 W/m 2,3 km/h (1 Bft) 95,65 %
12.06.2018 22:08 15,7 C 15,0 C 14,4 C 83 % 1012,3 hPa 0,0 l/m 0 min 0 min 0 W/m 11,3 km/h (2 Bft) 97,87 %
12.06.2018 22:10 15,7 C 15,0 C 14,4 C 83 % 1012,3 hPa 0,0 l/m 0 min 0 min 0 W/m 11,3 km/h (2 Bft) 97,87 %
12.06.2018 22:12 15,7 C 15,0 C 14,4 C 83 % 1012,3 hPa 0,0 l/m 0 min 0 min 0 W/m 15,8 km/h (3 Bft) 93,62 %
12.06.2018 22:14 15,7 C 15,0 C 14,4 C 83 % 1012,2 hPa 0,0 l/m 0 min 0 min 0 W/m 11,3 km/h (2 Bft) 97,87 %
12.06.2018 22:16 15,6 C 15,0 C 14,4 C 83 % 1012,3 hPa 0,0 l/m 0 min 0 min 0 W/m 13,5 km/h (3 Bft) 97,87 %
12.06.2018 22:18 15,6 C 15,0 C 14,4 C 83 % 1012,2 hPa 0,0 l/m 0 min 0 min 0 W/m 6,8 km/h (2 Bft) 97,87 %
12.06.2018 22:20 15,6 C 15,0 C 14,4 C 83 % 1012,3 hPa 0,0 l/m 0 min 0 min 0 W/m 11,3 km/h (2 Bft) 97,83 %
12.06.2018 22:22 15,6 C 14,4 C 14,4 C 83 % 1012,3 hPa 0,0 l/m 0 min 0 min 0 W/m 6,8 km/h (2 Bft) 95,83 %
12.06.2018 22:24 15,5 C 14,4 C 14,4 C 83 % 1012,3 hPa 0,0 l/m 0 min 0 min 0 W/m 4,5 km/h (1 Bft) 97,87 %
12.06.2018 22:26 15,5 C 14,4 C 14,4 C 83 % 1012,4 hPa 0,0 l/m 0 min 0 min 0 W/m 4,5 km/h (1 Bft) 97,87 %
12.06.2018 22:28 15,4 C 14,4 C 14,4 C 83 % 1012,4 hPa 0,0 l/m 0 min 0 min 0 W/m 4,5 km/h (1 Bft) 97,87 %
12.06.2018 22:30 15,4 C 14,4 C 14,4 C 83 % 1012,4 hPa 0,0 l/m 0 min 0 min 0 W/m 6,8 km/h (2 Bft) 95,65 %
12.06.2018 22:32 15,4 C 14,4 C 14,4 C 83 % 1012,4 hPa 0,0 l/m 0 min 0 min 0 W/m 15,8 km/h (3 Bft) 95,74 %
12.06.2018 22:34 15,4 C 14,4 C 14,4 C 83 % 1012,4 hPa 0,0 l/m 0 min 0 min 0 W/m 13,5 km/h (3 Bft) 97,87 %
12.06.2018 22:36 15,4 C 14,4 C 14,4 C 83 % 1012,4 hPa 0,0 l/m 0 min 0 min 0 W/m 11,3 km/h (2 Bft) 97,87 %
12.06.2018 22:38 15,4 C 14,4 C 14,4 C 83 % 1012,5 hPa 0,0 l/m 0 min 0 min 0 W/m 9,0 km/h (2 Bft) 95,74 %
12.06.2018 22:40 15,3 C 14,4 C 14,4 C 83 % 1012,5 hPa 0,0 l/m 0 min 0 min 0 W/m 11,3 km/h (2 Bft) 95,65 %
12.06.2018 22:42 15,3 C 14,4 C 14,4 C 83 % 1012,5 hPa 0,0 l/m 0 min 0 min 0 W/m 9,0 km/h (2 Bft) 95,74 %
12.06.2018 22:44 15,3 C 14,4 C 14,4 C 84 % 1012,5 hPa 0,0 l/m 0 min 0 min 0 W/m 9,0 km/h (2 Bft) 95,74 %
12.06.2018 22:46 15,3 C 14,4 C 14,4 C 84 % 1012,5 hPa 0,0 l/m 0 min 0 min 0 W/m 13,5 km/h (3 Bft) 97,87 %
12.06.2018 22:48 15,3 C 14,4 C 14,4 C 84 % 1012,5 hPa 0,0 l/m 0 min 0 min 0 W/m 4,5 km/h (1 Bft) 97,87 %
12.06.2018 22:50 15,2 C 14,4 C 14,4 C 84 % 1012,5 hPa 0,0 l/m 0 min 0 min 0 W/m 9,0 km/h (2 Bft) 97,87 %
12.06.2018 22:52 15,2 C 14,4 C 14,4 C 84 % 1012,5 hPa 0,0 l/m 0 min 0 min 0 W/m 11,3 km/h (2 Bft) 97,87 %
12.06.2018 22:54 15,2 C 14,4 C 14,4 C 84 % 1012,4 hPa 0,0 l/m 0 min 0 min 0 W/m 9,0 km/h (2 Bft) 97,87 %
12.06.2018 22:56 15,2 C 14,4 C 13,9 C 84 % 1012,4 hPa 0,0 l/m 0 min 0 min 0 W/m 11,3 km/h (2 Bft) 97,87 %
12.06.2018 22:58 15,2 C 14,4 C 14,4 C 84 % 1012,4 hPa 0,0 l/m 0 min 0 min 0 W/m 9,0 km/h (2 Bft) 93,62 %
12.06.2018 23:00 15,1 C 14,4 C 13,9 C 84 % 1012,4 hPa 0,0 l/m 0 min 0 min 0 W/m 11,3 km/h (2 Bft) 97,87 %
12.06.2018 23:02 15,1 C 14,4 C 13,9 C 83 % 1012,4 hPa 0,0 l/m 0 min 0 min 0 W/m 11,3 km/h (2 Bft) 95,74 %
12.06.2018 23:04 15,1 C 14,4 C 13,9 C 83 % 1012,4 hPa 0,0 l/m 0 min 0 min 0 W/m 6,8 km/h (2 Bft) 97,83 %
12.06.2018 23:06 15,1 C 14,4 C 13,9 C 83 % 1012,3 hPa 0,0 l/m 0 min 0 min 0 W/m 11,3 km/h (2 Bft) 91,67 %
12.06.2018 23:08 15,1 C 14,4 C 13,9 C 83 % 1012,4 hPa 0,0 l/m 0 min 0 min 0 W/m 9,0 km/h (2 Bft) 98,31 %
12.06.2018 23:10 15,1 C 14,4 C 13,9 C 83 % 1012,4 hPa 0,0 l/m 0 min 0 min 0 W/m 9,0 km/h (2 Bft) 97,87 %
12.06.2018 23:12 15,1 C 14,4 C 13,9 C 83 % 1012,4 hPa 0,0 l/m 0 min 0 min 0 W/m 9,0 km/h (2 Bft) 95,74 %
12.06.2018 23:14 15,0 C 14,4 C 13,9 C 83 % 1012,4 hPa 0,0 l/m 0 min 0 min 0 W/m 13,5 km/h (3 Bft) 97,87 %
12.06.2018 23:16 15,0 C 14,4 C 13,9 C 83 % 1012,4 hPa 0,0 l/m 0 min 0 min 0 W/m 6,8 km/h (2 Bft) 93,62 %
12.06.2018 23:18 15,0 C 14,4 C 13,9 C 83 % 1012,4 hPa 0,0 l/m 0 min 0 min 0 W/m 4,5 km/h (1 Bft) 97,83 %
12.06.2018 23:20 14,9 C 13,9 C 13,9 C 83 % 1012,4 hPa 0,0 l/m 0 min 0 min 0 W/m 6,8 km/h (2 Bft) 97,87 %
12.06.2018 23:22 14,9 C 13,9 C 13,9 C 83 % 1012,4 hPa 0,0 l/m 0 min 0 min 0 W/m 2,3 km/h (1 Bft) 97,87 %
12.06.2018 23:24 14,9 C 13,9 C 13,9 C 84 % 1012,5 hPa 0,0 l/m 0 min 0 min 0 W/m 4,5 km/h (1 Bft) 95,74 %
12.06.2018 23:26 14,9 C 13,9 C 13,9 C 84 % 1012,4 hPa 0,0 l/m 0 min 0 min 0 W/m 4,5 km/h (1 Bft) 95,74 %
12.06.2018 23:28 14,9 C 13,9 C 13,9 C 84 % 1012,5 hPa 0,0 l/m 0 min 0 min 0 W/m 9,0 km/h (2 Bft) 93,62 %
12.06.2018 23:30 14,9 C 13,9 C 13,9 C 84 % 1012,5 hPa 0,0 l/m 0 min 0 min 0 W/m 4,5 km/h (1 Bft) 95,65 %
12.06.2018 23:32 14,8 C 13,9 C 13,9 C 84 % 1012,5 hPa 0,0 l/m 0 min 0 min 0 W/m 6,8 km/h (2 Bft) 95,74 %
12.06.2018 23:34 14,8 C 13,9 C 13,9 C 84 % 1012,5 hPa 0,0 l/m 0 min 0 min 0 W/m 4,5 km/h (1 Bft) 95,74 %
12.06.2018 23:36 14,8 C 13,9 C 13,9 C 84 % 1012,5 hPa 0,0 l/m 0 min 0 min 0 W/m 9,0 km/h (2 Bft) 93,62 %
12.06.2018 23:38 14,8 C 13,9 C 13,9 C 84 % 1012,5 hPa 0,0 l/m 0 min 0 min 0 W/m 4,5 km/h (1 Bft) 93,62 %
12.06.2018 23:40 14,7 C 13,9 C 13,9 C 84 % 1012,4 hPa 0,0 l/m 0 min 0 min 0 W/m 4,5 km/h (1 Bft) 95,74 %
12.06.2018 23:42 14,7 C 13,9 C 13,9 C 84 % 1012,4 hPa 0,0 l/m 0 min 0 min 0 W/m 4,5 km/h (1 Bft) 95,65 %
12.06.2018 23:44 14,7 C 13,9 C 13,9 C 84 % 1012,5 hPa 0,0 l/m 0 min 0 min 0 W/m 6,8 km/h (2 Bft) 95,74 %
12.06.2018 23:46 14,7 C 13,9 C 13,9 C 84 % 1012,5 hPa 0,0 l/m 0 min 0 min 0 W/m 9,0 km/h (2 Bft) 97,87 %
12.06.2018 23:48 14,7 C 13,9 C 13,9 C 84 % 1012,5 hPa 0,0 l/m 0 min 0 min 0 W/m 9,0 km/h (2 Bft) 95,74 %
12.06.2018 23:50 14,6 C 13,9 C 13,9 C 84 % 1012,5 hPa 0,0 l/m 0 min 0 min 0 W/m 6,8 km/h (2 Bft) 97,87 %
12.06.2018 23:52 14,6 C 13,9 C 13,9 C 84 % 1012,5 hPa 0,0 l/m 0 min 0 min 0 W/m 9,0 km/h (2 Bft) 97,87 %
12.06.2018 23:54 14,6 C 13,9 C 13,9 C 85 % 1012,5 hPa 0,0 l/m 0 min 0 min 0 W/m 6,8 km/h (2 Bft) 97,83 %
12.06.2018 23:56 14,6 C 13,9 C 13,9 C 85 % 1012,5 hPa 0,0 l/m 0 min 0 min 0 W/m 4,5 km/h (1 Bft) 97,87 %
12.06.2018 23:58 14,6 C 13,9 C 13,3 C 85 % 1012,5 hPa 0,0 l/m 0 min 0 min 0 W/m 4,5 km/h (1 Bft) 95,74 %
_ Min-Zeit 23:50 05:06 16:28 12:38 00:02 - - - - 05:14 09:32
Minimum _ 14,6 C 13,9 C 13,3 C 70 % 1008,8 hPa - - - - 0,0 km/h (0 Bft) 89,36 %
_ Max-Zeit 13:20 11:28 00:00 05:42 22:38 16:26 12:08 14:00 17:10 21:26 01:36
Maximum _ 19,3 C 22,2 C 17,8 C 89 % 1012,5 hPa 0,2 l/m 4 min 2 min 694 W/m 24,8 km/h
NW (4 Bft)
100,00 %
Durchschnitt _ 16,7 C 16,6 C 15,5 C 81 % 1010,6 hPa #0,8 l/m #3:49 h #1:44 h 217 W/m 8,2 km/h (2 Bft) 97,52 %
© 2018 W. Hausmann